KC5DAQ-28 Weather Reports


Display with metric or nautical units.
time (UTC)temp
F
wind
direction
speed
MPH
gust
MPH
rain 1hr
in
rain 24hr
in
rain mn
in
humidity
%
barometer
mb
20260902212403 98 186 3.0 7.0 0.00 0.00 0.00 52 1005.2
20260902212305 98 165 2.0 7.0 0.00 0.00 0.00 52 1005.2
20260902212204 98 111 3.0 7.0 0.00 0.00 0.00 52 1005.2
20260902212103 98 179 3.0 7.0 0.00 0.00 0.00 52 1005.2
20260902212004 98 149 4.0 7.0 0.00 0.00 0.00 51 1005.2
20260902211903 98 142 4.0 6.0 0.00 0.00 0.00 52 1005.2
20260902211803 98 179 4.0 6.0 0.00 0.00 0.00 53 1005.2
20260902211703 98 135 3.0 6.0 0.00 0.00 0.00 53 1005.2
20260902211603 97 148 3.0 6.0 0.00 0.00 0.00 53 1005.2
20260902211504 97 164 4.0 9.0 0.00 0.00 0.00 52 1005.2
20260902211404 97 186 3.0 9.0 0.00 0.00 0.00 52 1005.2
20260902211303 97 202 2.0 9.0 0.00 0.00 0.00 52 1005.3
20260902211203 97 155 2.0 9.0 0.00 0.00 0.00 52 1005.3
20260902211104 97 176 3.0 9.0 0.00 0.00 0.00 52 1005.3
20260902211006 97 162 3.0 9.0 0.00 0.00 0.00 53 1005.3
20260902210903 97 169 2.0 9.0 0.00 0.00 0.00 53 1005.2
20260902210802 97 164 2.0 9.0 0.00 0.00 0.00 53 1005.3
20260902210703 97 162 4.0 9.0 0.00 0.00 0.00 53 1005.3
20260902210603 97 124 5.0 9.0 0.00 0.00 0.00 52 1005.3
20260902210504 97 118 6.0 9.0 0.00 0.00 0.00 52 1005.4
20260902210403 97 89 6.0 9.0 0.00 0.00 0.00 53 1005.4
20260902210303 97 114 4.0 9.0 0.00 0.00 0.00 53 1005.4
20260902210203 97 182 4.0 9.0 0.00 0.00 0.00 52 1005.4
20260902210103 97 173 5.0 9.0 0.00 0.00 0.00 52 1005.5
20260902210001 97 176 4.0 9.0 0.00 0.00 0.00 53 1005.4
20260902205903 97 175 3.0 6.0 0.00 0.00 0.00 53 1005.4
20260902205803 97 159 3.0 6.0 0.00 0.00 0.00 53 1005.4
20260902205703 97 149 3.0 6.0 0.00 0.00 0.00 52 1005.4
20260902205604 97 197 3.0 6.0 0.00 0.00 0.00 52 1005.4
20260902205505 97 216 4.0 6.0 0.00 0.00 0.00 52 1005.4
20260902205402 97 210 3.0 6.0 0.00 0.00 0.00 52 1005.4
20260902205306 97 130 2.0 5.0 0.00 0.00 0.00 53 1005.3
20260902205203 97 189 2.0 5.0 0.00 0.00 0.00 53 1005.3
20260902205104 97 203 2.0 5.0 0.00 0.00 0.00 53 1005.4
20260902205001 97 189 2.0 5.0 0.00 0.00 0.00 54 1005.4
20260902204903 97 193 3.0 7.0 0.00 0.00 0.00 53 1005.4
20260902204803 97 221 4.0 7.0 0.00 0.00 0.00 53 1005.4
20260902204705 97 223 3.0 7.0 0.00 0.00 0.00 54 1005.5
20260902204603 97 241 3.0 7.0 0.00 0.00 0.00 54 1005.4
20260902204502 97 255 2.0 7.0 0.00 0.00 0.00 53 1005.5
20260902204402 97 235 3.0 7.0 0.00 0.00 0.00 53 1005.6
20260902204303 97 207 3.0 7.0 0.00 0.00 0.00 53 1005.5
20260902204203 97 224 3.0 7.0 0.00 0.00 0.00 53 1005.5
20260902204104 97 148 4.0 7.0 0.00 0.00 0.00 53 1005.4
20260902204004 97 141 4.0 7.0 0.00 0.00 0.00 53 1005.5
20260902203903 97 145 3.0 7.0 0.00 0.00 0.00 53 1005.5
20260902203804 97 189 3.0 7.0 0.00 0.00 0.00 53 1005.6
20260902203704 97 151 2.0 7.0 0.00 0.00 0.00 53 1005.7
20260902203602 97 145 4.0 7.0 0.00 0.00 0.00 53 1005.7
20260902203505 97 137 4.0 7.0 0.00 0.00 0.00 53 1005.7
20260902203403 97 162 3.0 7.0 0.00 0.00 0.00 53 1005.8
20260902203302 97 185 3.0 5.0 0.00 0.00 0.00 54 1005.7
20260902203203 97 188 4.0 5.0 0.00 0.00 0.00 54 1005.7
20260902203102 97 220 3.0 5.0 0.00 0.00 0.00 54 1005.9
20260902203005 97 173 2.0 7.0 0.00 0.00 0.00 53 1006.0
20260902202902 97 200 2.0 7.0 0.00 0.00 0.00 54 1005.9
20260902202803 97 190 2.0 7.0 0.00 0.00 0.00 54 1005.9
20260902202703 97 179 3.0 7.0 0.00 0.00 0.00 53 1006.0
20260902202603 97 214 3.0 7.0 0.00 0.00 0.00 53 1005.9
20260902202503 97 185 4.0 7.0 0.00 0.00 0.00 53 1006.0
20260902202403 98 175 4.0 10.0 0.00 0.00 0.00 53 1005.8
20260902202306 98 202 2.0 10.0 0.00 0.00 0.00 54 1005.8
20260902202202 98 240 3.0 10.0 0.00 0.00 0.00 54 1005.8
20260902202104 98 219 3.0 10.0 0.00 0.00 0.00 54 1005.7
20260902202003 98 235 3.0 10.0 0.00 0.00 0.00 53 1005.7
20260902201903 98 230 4.0 10.0 0.00 0.00 0.00 52 1005.7
20260902201805 98 258 4.0 10.0 0.00 0.00 0.00 52 1005.7
20260902201702 98 266 4.0 10.0 0.00 0.00 0.00 52 1005.8
20260902201602 98 255 5.0 10.0 0.00 0.00 0.00 52 1005.8
20260902201503 98 224 4.0 10.0 0.00 0.00 0.00 54 1005.7
20260902201403 98 244 2.0 7.0 0.00 0.00 0.00 54 1005.7
20260902201303 98 178 2.0 7.0 0.00 0.00 0.00 54 1005.7
20260902201145 98 176 3.0 7.0 0.00 0.00 0.00 53 1005.7
20260902201040 98 161 4.0 7.0 0.00 0.00 0.00 53 1005.8
20260902200935 97 192 3.0 6.0 0.00 0.00 0.00 54 1005.8
20260902200834 97 189 3.0 6.0 0.00 0.00 0.00 53 1005.8
20260902200731 97 226 4.0 6.0 0.00 0.00 0.00 53 1005.8
20260902200632 97 210 4.0 6.0 0.00 0.00 0.00 53 1005.9
20260902200530 97 237 4.0 6.0 0.00 0.00 0.00 53 1005.8
20260902200429 98 219 3.0 10.0 0.00 0.00 0.00 53 1005.8
20260902200327 98 189 4.0 10.0 0.00 0.00 0.00 53 1006.0
20260902200224 98 180 3.0 10.0 0.00 0.00 0.00 54 1006.0
20260902200122 98 221 2.0 10.0 0.00 0.00 0.00 55 1006.0
20260902200013 98 182 2.0 10.0 0.00 0.00 0.00 55 1006.0
20260902195912 97 188 2.0 10.0 0.00 0.00 0.00 55 1006.0
20260902195813 97 209 2.0 10.0 0.00 0.00 0.00 55 1006.0
20260902195713 97 180 3.0 10.0 0.00 0.00 0.00 55 1006.0
20260902195613 97 209 3.0 10.0 0.00 0.00 0.00 55 1006.1
20260902195512 97 233 4.0 10.0 0.00 0.00 0.00 55 1006.2
20260902195412 97 203 3.0 5.0 0.00 0.00 0.00 55 1006.2
20260902195311 97 204 2.0 5.0 0.00 0.00 0.00 54 1006.2
20260902195211 97 179 2.0 5.0 0.00 0.00 0.00 54 1006.2
20260902195111 97 175 3.0 7.0 0.00 0.00 0.00 54 1006.2
20260902195011 97 182 4.0 10.0 0.00 0.00 0.00 54 1006.2
20260902194913 97 197 4.0 12.0 0.00 0.00 0.00 55 1006.3
20260902194813 97 175 3.0 12.0 0.00 0.00 0.00 55 1006.4
20260902194713 97 182 3.0 12.0 0.00 0.00 0.00 54 1006.3
20260902194611 97 190 3.0 12.0 0.00 0.00 0.00 54 1006.3
20260902194513 97 171 3.0 12.0 0.00 0.00 0.00 54 1006.4
20260902194414 97 233 3.0 12.0 0.00 0.00 0.00 54 1006.4
20260902194313 97 216 5.0 12.0 0.00 0.00 0.00 54 1006.4
20260902194213 97 224 6.0 12.0 0.00 0.00 0.00 54 1006.5
20260902194113 97 227 6.0 12.0 0.00 0.00 0.00 54 1006.5
20260902194010 97 264 6.0 12.0 0.00 0.00 0.00 55 1006.5
20260902193911 97 265 7.0 12.0 0.00 0.00 0.00 54 1006.4
20260902193811 97 250 5.0 9.0 0.00 0.00 0.00 54 1006.5
20260902193711 97 230 4.0 9.0 0.00 0.00 0.00 54 1006.5
20260902193612 97 228 4.0 9.0 0.00 0.00 0.00 55 1006.5
20260902193511 97 231 5.0 9.0 0.00 0.00 0.00 55 1006.5
20260902193412 97 180 5.0 9.0 0.00 0.00 0.00 55 1006.5
20260902193310 97 196 4.0 9.0 0.00 0.00 0.00 55 1006.6
20260902193212 97 114 3.0 9.0 0.00 0.00 0.00 55 1006.6
20260902193110 97 165 2.0 7.0 0.00 0.00 0.00 56 1006.6
20260902193011 97 149 3.0 9.0 0.00 0.00 0.00 57 1006.6
20260902192910 96 219 3.0 9.0 0.00 0.00 0.00 57 1006.6
20260902192809 96 213 4.0 9.0 0.00 0.00 0.00 57 1006.7
20260902192711 96 200 4.0 9.0 0.00 0.00 0.00 57 1006.7
20260902192611 96 197 4.0 10.0 0.00 0.00 0.00 56 1006.7
20260902192512 96 185 3.0 10.0 0.00 0.00 0.00 57 1006.6
20260902192410 96 210 3.0 10.0 0.00 0.00 0.00 57 1006.7
20260902192312 96 199 4.0 10.0 0.00 0.00 0.00 57 1006.7
20260902192210 96 202 5.0 10.0 0.00 0.00 0.00 58 1006.7
20260902192110 96 186 4.0 10.0 0.00 0.00 0.00 58 1006.7
20260902192011 96 214 3.0 10.0 0.00 0.00 0.00 58 1006.7
20260902191910 96 185 2.0 10.0 0.00 0.00 0.00 57 1006.7
20260902191812 96 250 4.0 10.0 0.00 0.00 0.00 57 1006.8
20260902191711 96 233 5.0 11.0 0.00 0.00 0.00 57 1006.7
20260902191612 96 262 4.0 11.0 0.00 0.00 0.00 57 1006.8
20260902191510 96 261 4.0 12.0 0.00 0.00 0.00 57 1006.7
20260902191410 96 264 4.0 12.0 0.00 0.00 0.00 57 1006.8
20260902191311 96 238 5.0 14.0 0.00 0.00 0.00 57 1006.9
20260902191210 96 217 5.0 14.0 0.00 0.00 0.00 57 1006.8
20260902191111 96 245 6.0 14.0 0.00 0.00 0.00 57 1006.8
20260902191010 96 241 6.0 14.0 0.00 0.00 0.00 57 1006.8
20260902190911 95 244 8.0 14.0 0.00 0.00 0.00 57 1006.8
20260902190811 95 283 9.0 14.0 0.00 0.00 0.00 56 1006.8
20260902190711 96 265 8.0 14.0 0.00 0.00 0.00 57 1006.8
20260902190610 96 264 7.0 14.0 0.00 0.00 0.00 57 1006.9
20260902190510 96 227 7.0 14.0 0.00 0.00 0.00 58 1006.9
20260902190412 96 247 5.0 14.0 0.00 0.00 0.00 58 1006.9
20260902190307 96 212 4.0 7.0 0.00 0.00 0.00 59 1006.9
20260902190203 95 220 6.0 7.0 0.00 0.00 0.00 59 1006.8
20260902190004 96 197 3.0 7.0 0.00 0.00 0.00 58 1006.9
20260902185903 96 176 3.0 7.0 0.00 0.00 0.00 58 1006.9
20260902185803 96 180 3.0 7.0 0.00 0.00 0.00 58 1007.0
20260902185702 96 175 3.0 13.0 0.00 0.00 0.00 58 1007.0
20260902185604 96 202 4.0 13.0 0.00 0.00 0.00 58 1007.0
20260902185503 96 196 5.0 13.0 0.00 0.00 0.00 57 1007.1
20260902185403 95 213 3.0 13.0 0.00 0.00 0.00 57 1007.1
20260902185306 95 189 2.0 13.0 0.00 0.00 0.00 57 1007.1
20260902185203 95 261 2.0 13.0 0.00 0.00 0.00 57 1007.1
20260902185103 95 262 2.0 13.0 0.00 0.00 0.00 57 1007.2
20260902185004 95 266 4.0 13.0 0.00 0.00 0.00 57 1007.2
20260902184903 95 254 6.0 13.0 0.00 0.00 0.00 57 1007.3
20260902184803 95 228 6.0 13.0 0.00 0.00 0.00 58 1007.2
20260902184702 95 255 4.0 10.0 0.00 0.00 0.00 58 1007.3
20260902184604 95 202 3.0 10.0 0.00 0.00 0.00 59 1007.3
20260902184504 95 157 3.0 10.0 0.00 0.00 0.00 59 1007.4
20260902184402 95 245 4.0 10.0 0.00 0.00 0.00 58 1007.4
20260902184302 95 259 3.0 10.0 0.00 0.00 0.00 59 1007.5
20260902184203 95 206 3.0 10.0 0.00 0.00 0.00 58 1007.5
20260902184102 95 216 4.0 10.0 0.00 0.00 0.00 58 1007.5
20260902184004 95 234 5.0 10.0 0.00 0.00 0.00 58 1007.5
20260902183903 96 142 4.0 10.0 0.00 0.00 0.00 59 1007.5
20260902183804 96 185 4.0 10.0 0.00 0.00 0.00 59 1007.5
20260902183703 95 164 5.0 10.0 0.00 0.00 0.00 60 1007.4
20260902183604 95 266 7.0 11.0 0.00 0.00 0.00 58 1007.5
20260902183504 95 268 6.0 11.0 0.00 0.00 0.00 58 1007.5
20260902183402 95 244 6.0 11.0 0.00 0.00 0.00 58 1007.5
20260902183303 95 251 5.0 11.0 0.00 0.00 0.00 58 1007.5
20260902183203 96 237 6.0 11.0 0.00 0.00 0.00 58 1007.5
20260902183102 96 223 6.0 11.0 0.00 0.00 0.00 58 1007.6
20260902183003 96 230 6.0 11.0 0.00 0.00 0.00 58 1007.5
20260902182904 96 226 6.0 11.0 0.00 0.00 0.00 58 1007.6
20260902182803 96 244 6.0 11.0 0.00 0.00 0.00 58 1007.5
20260902182703 96 217 4.0 13.0 0.00 0.00 0.00 59 1007.6
20260902182602 95 268 4.0 13.0 0.00 0.00 0.00 59 1007.6
20260902182504 94 217 6.0 13.0 0.00 0.00 0.00 59 1007.6
20260902182404 94 262 6.0 13.0 0.00 0.00 0.00 58 1007.7
20260902182306 94 258 4.0 13.0 0.00 0.00 0.00 59 1007.6
20260902182202 94 133 4.0 13.0 0.00 0.00 0.00 59 1007.6
20260902182102 94 264 6.0 13.0 0.00 0.00 0.00 59 1007.7
20260902182003 94 259 6.0 13.0 0.00 0.00 0.00 58 1007.7
20260902181902 94 265 6.0 13.0 0.00 0.00 0.00 59 1007.7
20260902181805 94 259 6.0 13.0 0.00 0.00 0.00 60 1007.7
20260902181703 94 243 5.0 10.0 0.00 0.00 0.00 60 1007.8
20260902181604 94 237 5.0 10.0 0.00 0.00 0.00 60 1007.8
20260902181504 94 224 5.0 10.0 0.00 0.00 0.00 60 1007.8
20260902181403 94 234 5.0 10.0 0.00 0.00 0.00 60 1007.8
20260902181303 94 213 4.0 10.0 0.00 0.00 0.00 61 1007.8
20260902181204 94 220 5.0 11.0 0.00 0.00 0.00 61 1007.8
20260902181104 93 220 5.0 11.0 0.00 0.00 0.00 61 1007.8
20260902181005 93 210 4.0 11.0 0.00 0.00 0.00 62 1007.8
20260902180904 94 168 4.0 11.0 0.00 0.00 0.00 62 1007.9
20260902180802 94 166 4.0 11.0 0.00 0.00 0.00 62 1007.9
20260902180702 94 175 3.0 11.0 0.00 0.00 0.00 62 1007.9
20260902180603 94 237 4.0 11.0 0.00 0.00 0.00 61 1007.9
20260902180502 94 243 5.0 11.0 0.00 0.00 0.00 61 1008.0
20260902180404 94 235 3.0 11.0 0.00 0.00 0.00 61 1008.0
20260902180302 94 261 3.0 11.0 0.00 0.00 0.00 61 1008.0
20260902180202 94 203 2.0 9.0 0.00 0.00 0.00 62 1008.0
20260902180005 93 257 3.0 12.0 0.00 0.00 0.00 62 1008.2
20260902175903 93 193 5.0 12.0 0.00 0.00 0.00 62 1008.2
20260902175805 93 241 5.0 12.0 0.00 0.00 0.00 63 1008.2
20260902175701 93 188 4.0 12.0 0.00 0.00 0.00 63 1008.2
20260902175603 93 255 4.0 12.0 0.00 0.00 0.00 63 1008.2
20260902175502 93 240 3.0 12.0 0.00 0.00 0.00 63 1008.3
20260902175403 93 226 4.0 13.0 0.00 0.00 0.00 63 1008.3
20260902175307 93 254 6.0 13.0 0.00 0.00 0.00 62 1008.3
20260902175204 93 200 7.0 13.0 0.00 0.00 0.00 62 1008.3
20260902175101 93 240 5.0 13.0 0.00 0.00 0.00 62 1008.3
20260902175002 93 241 2.0 13.0 0.00 0.00 0.00 63 1008.3
20260902174903 93 204 2.0 13.0 0.00 0.00 0.00 63 1008.4
20260902174803 93 244 4.0 13.0 0.00 0.00 0.00 63 1008.4
20260902174704 93 200 5.0 13.0 0.00 0.00 0.00 63 1008.5
20260902174603 93 233 9.0 13.0 0.00 0.00 0.00 63 1008.4
20260902174503 94 266 8.0 13.0 0.00 0.00 0.00 63 1008.4
20260902174404 94 261 6.0 10.0 0.00 0.00 0.00 63 1008.5
20260902174303 93 261 5.0 10.0 0.00 0.00 0.00 64 1008.5
20260902174203 93 206 4.0 10.0 0.00 0.00 0.00 63 1008.4
20260902174101 93 161 4.0 10.0 0.00 0.00 0.00 64 1008.4
20260902174004 93 176 4.0 10.0 0.00 0.00 0.00 64 1008.5
20260902173904 93 144 4.0 10.0 0.00 0.00 0.00 64 1008.5
20260902173802 93 164 4.0 10.0 0.00 0.00 0.00 64 1008.6
20260902173702 93 147 5.0 10.0 0.00 0.00 0.00 63 1008.7
20260902173602 93 193 6.0 10.0 0.00 0.00 0.00 64 1008.7
20260902173502 93 243 5.0 10.0 0.00 0.00 0.00 64 1008.7
20260902173404 93 240 4.0 11.0 0.00 0.00 0.00 64 1008.7
20260902173304 93 189 4.0 11.0 0.00 0.00 0.00 63 1008.8
20260902173202 93 209 5.0 11.0 0.00 0.00 0.00 63 1008.8
20260902173103 94 202 5.0 11.0 0.00 0.00 0.00 65 1008.7
20260902173003 93 209 5.0 11.0 0.00 0.00 0.00 65 1008.7
20260902172902 93 178 5.0 11.0 0.00 0.00 0.00 65 1008.6
20260902172804 93 190 3.0 11.0 0.00 0.00 0.00 65 1008.7
20260902172704 93 178 4.0 11.0 0.00 0.00 0.00 65 1008.8
20260902172602 93 212 6.0 11.0 0.00 0.00 0.00 65 1008.8
20260902172504 93 188 7.0 11.0 0.00 0.00 0.00 65 1008.8
20260902172403 93 221 6.0 11.0 0.00 0.00 0.00 64 1008.8
20260902172307 93 210 4.0 9.0 0.00 0.00 0.00 64 1008.8
20260902172203 93 213 4.0 9.0 0.00 0.00 0.00 64 1008.9
20260902172101 93 226 4.0 9.0 0.00 0.00 0.00 66 1008.9
20260902172003 93 206 4.0 9.0 0.00 0.00 0.00 66 1008.8
20260902171902 93 171 4.0 10.0 0.00 0.00 0.00 66 1008.8
20260902171803 92 213 4.0 10.0 0.00 0.00 0.00 66 1008.9
20260902171702 92 224 4.0 10.0 0.00 0.00 0.00 66 1009.0
20260902171603 92 183 5.0 10.0 0.00 0.00 0.00 66 1008.9
20260902171502 92 206 5.0 10.0 0.00 0.00 0.00 66 1008.9
20260902171404 92 195 6.0 10.0 0.00 0.00 0.00 66 1009.0
20260902171304 92 204 6.0 10.0 0.00 0.00 0.00 66 1009.0
20260902171204 92 185 5.0 12.0 0.00 0.00 0.00 67 1009.0
20260902171103 92 189 5.0 12.0 0.00 0.00 0.00 67 1009.0
20260902171004 92 228 4.0 12.0 0.00 0.00 0.00 68 1009.1
20260902170903 92 172 3.0 12.0 0.00 0.00 0.00 67 1009.0
20260902170805 92 193 4.0 12.0 0.00 0.00 0.00 68 1009.0
20260902170703 92 234 5.0 12.0 0.00 0.00 0.00 68 1009.1
20260902170603 92 223 4.0 12.0 0.00 0.00 0.00 68 1009.1
20260902170502 92 213 4.0 12.0 0.00 0.00 0.00 68 1009.0
20260902170403 92 200 6.0 12.0 0.00 0.00 0.00 68 1009.1
20260902170302 91 224 5.0 12.0 0.00 0.00 0.00 69 1009.0
20260902170204 91 238 4.0 10.0 0.00 0.00 0.00 69 1009.1
20260902170103 91 228 4.0 10.0 0.00 0.00 0.00 69 1009.1
20260902170004 90 235 5.0 10.0 0.00 0.00 0.00 69 1009.1
20260902165902 91 213 4.0 10.0 0.00 0.00 0.00 69 1009.1
20260902165802 91 206 5.0 10.0 0.00 0.00 0.00 69 1009.2
20260902165704 91 228 5.0 14.0 0.00 0.00 0.00 69 1009.1
20260902165604 90 182 4.0 14.0 0.00 0.00 0.00 69 1009.1
20260902165503 90 230 5.0 14.0 0.00 0.00 0.00 69 1009.1
20260902165402 90 220 5.0 15.0 0.00 0.00 0.00 69 1009.2
20260902165308 90 231 6.0 15.0 0.00 0.00 0.00 69 1009.2
20260902165203 90 227 4.0 15.0 0.00 0.00 0.00 69 1009.1
20260902165103 90 231 3.0 15.0 0.00 0.00 0.00 69 1009.2
20260902165002 90 233 4.0 15.0 0.00 0.00 0.00 69 1009.2
20260902164903 90 231 7.0 15.0 0.00 0.00 0.00 68 1009.1
20260902164802 90 261 8.0 15.0 0.00 0.00 0.00 68 1009.1
20260902164703 91 214 6.0 15.0 0.00 0.00 0.00 69 1009.2
20260902164604 91 216 7.0 15.0 0.00 0.00 0.00 69 1009.2
20260902164502 91 220 7.0 15.0 0.00 0.00 0.00 69 1009.2
20260902164403 91 244 6.0 10.0 0.00 0.00 0.00 69 1009.2
20260902164302 90 245 6.0 10.0 0.00 0.00 0.00 70 1009.3
20260902164203 90 271 5.0 9.0 0.00 0.00 0.00 70 1009.3
20260902164104 90 207 5.0 10.0 0.00 0.00 0.00 70 1009.3
20260902164004 90 178 5.0 13.0 0.00 0.00 0.00 70 1009.3
20260902163903 90 188 5.0 13.0 0.00 0.00 0.00 70 1009.3
20260902163802 90 259 3.0 13.0 0.00 0.00 0.00 71 1009.3
20260902163704 89 245 4.0 14.0 0.00 0.00 0.00 71 1009.3
20260902163603 89 195 4.0 14.0 0.00 0.00 0.00 71 1009.3
20260902163504 89 190 4.0 14.0 0.00 0.00 0.00 71 1009.3
20260902163404 89 207 5.0 14.0 0.00 0.00 0.00 71 1009.3
20260902163302 89 226 6.0 14.0 0.00 0.00 0.00 72 1009.4
20260902163205 89 241 8.0 14.0 0.00 0.00 0.00 71 1009.4
20260902163104 89 251 9.0 14.0 0.00 0.00 0.00 71 1009.2
20260902163004 89 231 8.0 14.0 0.00 0.00 0.00 72 1009.3
20260902162904 88 259 7.0 14.0 0.00 0.00 0.00 72 1009.3
20260902162802 88 230 7.0 14.0 0.00 0.00 0.00 72 1009.3
20260902162704 88 230 6.0 14.0 0.00 0.00 0.00 72 1009.3
20260902162600 88 234 6.0 13.0 0.00 0.00 0.00 73 1009.3
20260902162500 88 250 5.0 13.0 0.00 0.00 0.00 73 1009.3
20260902162356 88 230 6.0 13.0 0.00 0.00 0.00 73 1009.3
20260902162255 88 261 8.0 13.0 0.00 0.00 0.00 73 1009.2
20260902162151 88 250 7.0 13.0 0.00 0.00 0.00 73 1009.3
20260902162050 88 238 8.0 13.0 0.00 0.00 0.00 73 1009.4
20260902161945 88 240 7.0 13.0 0.00 0.00 0.00 73 1009.3
20260902161843 88 216 6.0 13.0 0.00 0.00 0.00 73 1009.4
20260902161739 87 234 6.0 13.0 0.00 0.00 0.00 74 1009.4
20260902161633 87 254 8.0 13.0 0.00 0.00 0.00 74 1009.3
20260902161532 87 212 7.0 13.0 0.00 0.00 0.00 74 1009.3
20260902161432 87 238 6.0 12.0 0.00 0.00 0.00 74 1009.4
20260902161331 87 244 7.0 12.0 0.00 0.00 0.00 73 1009.4
20260902161231 88 197 6.0 12.0 0.00 0.00 0.00 74 1009.4
20260902161131 88 206 5.0 12.0 0.00 0.00 0.00 74 1009.4
20260902161033 88 213 5.0 12.0 0.00 0.00 0.00 74 1009.4
20260902160931 88 214 4.0 10.0 0.00 0.00 0.00 74 1009.4
20260902160832 87 231 5.0 13.0 0.00 0.00 0.00 74 1009.5
20260902160731 87 224 6.0 13.0 0.00 0.00 0.00 74 1009.4
20260902160631 87 268 6.0 14.0 0.00 0.00 0.00 74 1009.4
20260902160533 87 234 6.0 14.0 0.00 0.00 0.00 75 1009.4
20260902160433 87 221 4.0 14.0 0.00 0.00 0.00 75 1009.4
20260902160331 87 224 4.0 14.0 0.00 0.00 0.00 76 1009.4
20260902160233 87 196 4.0 14.0 0.00 0.00 0.00 76 1009.4
20260902160132 87 212 6.0 14.0 0.00 0.00 0.00 76 1009.4
20260902160034 87 212 6.0 14.0 0.00 0.00 0.00 76 1009.4
20260902155932 87 261 7.0 14.0 0.00 0.00 0.00 76 1009.3
20260902155833 87 257 8.0 14.0 0.00 0.00 0.00 77 1009.4
20260902155733 87 235 8.0 14.0 0.00 0.00 0.00 77 1009.4
20260902155632 86 250 7.0 14.0 0.00 0.00 0.00 77 1009.4
20260902155533 86 221 7.0 14.0 0.00 0.00 0.00 77 1009.4
20260902155431 86 238 8.0 14.0 0.00 0.00 0.00 77 1009.3
20260902155332 86 247 6.0 14.0 0.00 0.00 0.00 79 1009.3
20260902155228 86 206 5.0 13.0 0.00 0.00 0.00 79 1009.4
20260902155114 86 216 6.0 13.0 0.00 0.00 0.00 79 1009.4
20260902155009 85 265 6.0 13.0 0.00 0.00 0.00 79 1009.3
20260902154906 85 234 5.0 13.0 0.00 0.00 0.00 79 1009.3
20260902154806 85 251 7.0 13.0 0.00 0.00 0.00 79 1009.3
20260902154708 85 217 9.0 13.0 0.00 0.00 0.00 79 1009.3
20260902154605 85 219 8.0 13.0 0.00 0.00 0.00 79 1009.3
20260902154507 85 243 7.0 12.0 0.00 0.00 0.00 80 1009.3
20260902154406 85 189 7.0 12.0 0.00 0.00 0.00 80 1009.4
20260902154306 85 272 6.0 12.0 0.00 0.00 0.00 80 1009.3
20260902154205 85 223 5.0 14.0 0.00 0.00 0.00 80 1009.4
20260902154105 85 226 6.0 14.0 0.00 0.00 0.00 80 1009.4
20260902154006 85 220 7.0 14.0 0.00 0.00 0.00 80 1009.3
20260902153905 85 266 7.0 14.0 0.00 0.00 0.00 80 1009.3
20260902153805 85 228 7.0 14.0 0.00 0.00 0.00 80 1009.4
20260902153705 85 237 7.0 14.0 0.00 0.00 0.00 80 1009.4
20260902153606 85 262 7.0 14.0 0.00 0.00 0.00 80 1009.4
20260902153505 85 223 5.0 14.0 0.00 0.00 0.00 80 1009.4
20260902153406 85 226 6.0 14.0 0.00 0.00 0.00 80 1009.4
20260902153305 85 258 7.0 14.0 0.00 0.00 0.00 81 1009.4
20260902153205 85 226 6.0 12.0 0.00 0.00 0.00 81 1009.4
20260902153105 85 243 7.0 12.0 0.00 0.00 0.00 81 1009.4
20260902153006 85 216 8.0 12.0 0.00 0.00 0.00 81 1009.3
20260902152905 85 265 6.0 11.0 0.00 0.00 0.00 82 1009.3
20260902152806 85 223 4.0 7.0 0.00 0.00 0.00 82 1009.4
20260902152705 85 228 5.0 7.0 0.00 0.00 0.00 82 1009.4
20260902152607 85 200 3.0 7.0 0.00 0.00 0.00 83 1009.4
20260902152505 85 258 3.0 7.0 0.00 0.00 0.00 83 1009.3
20260902152405 84 224 4.0 7.0 0.00 0.00 0.00 83 1009.3
20260902152308 84 214 4.0 10.0 0.00 0.00 0.00 84 1009.3
20260902152206 84 226 4.0 10.0 0.00 0.00 0.00 84 1009.3
20260902152107 84 204 4.0 10.0 0.00 0.00 0.00 84 1009.3
20260902152007 84 210 4.0 11.0 0.00 0.00 0.00 84 1009.4
20260902151905 84 231 4.0 11.0 0.00 0.00 0.00 84 1009.2
20260902151805 84 228 5.0 11.0 0.00 0.00 0.00 84 1009.3
20260902151705 83 226 5.0 11.0 0.00 0.00 0.00 84 1009.2
20260902151604 83 223 4.0 11.0 0.00 0.00 0.00 85 1009.3
20260902151504 83 254 5.0 11.0 0.00 0.00 0.00 85 1009.3
20260902151407 83 223 7.0 11.0 0.00 0.00 0.00 85 1009.3
20260902151304 83 228 8.0 11.0 0.00 0.00 0.00 85 1009.3
20260902151205 83 251 8.0 11.0 0.00 0.00 0.00 85 1009.3
20260902151104 83 238 8.0 11.0 0.00 0.00 0.00 85 1009.4
20260902151005 83 235 6.0 11.0 0.00 0.00 0.00 85 1009.4
20260902150906 83 240 5.0 11.0 0.00 0.00 0.00 85 1009.4
20260902150804 83 257 8.0 11.0 0.00 0.00 0.00 85 1009.4
20260902150704 83 244 8.0 11.0 0.00 0.00 0.00 85 1009.4
20260902150604 83 261 7.0 10.0 0.00 0.00 0.00 85 1009.4
20260902150504 83 254 8.0 10.0 0.00 0.00 0.00 85 1009.5
20260902150405 83 261 8.0 10.0 0.00 0.00 0.00 85 1009.4
20260902150305 83 217 7.0 9.0 0.00 0.00 0.00 85 1009.4
20260902150204 83 231 5.0 10.0 0.00 0.00 0.00 85 1009.4
20260902150104 83 258 4.0 10.0 0.00 0.00 0.00 86 1009.5
20260902150004 83 230 4.0 10.0 0.00 0.00 0.00 86 1009.4
20260902145905 83 243 4.0 10.0 0.00 0.00 0.00 86 1009.5
20260902145805 83 233 5.0 10.0 0.00 0.00 0.00 86 1009.5
20260902145704 83 238 3.0 10.0 0.00 0.00 0.00 86 1009.4
20260902145605 83 245 3.0 10.0 0.00 0.00 0.00 86 1009.4
20260902145504 83 224 3.0 10.0 0.00 0.00 0.00 86 1009.5
20260902145404 82 243 5.0 10.0 0.00 0.00 0.00 86 1009.4
20260902145306 82 235 5.0 10.0 0.00 0.00 0.00 86 1009.4
20260902145207 82 254 5.0 7.0 0.00 0.00 0.00 86 1009.4
20260902145104 82 252 6.0 7.0 0.00 0.00 0.00 86 1009.4
20260902145005 82 255 5.0 7.0 0.00 0.00 0.00 86 1009.3
20260902144904 82 247 4.0 10.0 0.00 0.00 0.00 87 1009.3
20260902144806 82 254 4.0 14.0 0.00 0.00 0.00 87 1009.4
20260902144704 82 230 4.0 14.0 0.00 0.00 0.00 87 1009.4
20260902144605 82 216 4.0 14.0 0.00 0.00 0.00 87 1009.4
20260902144504 82 230 4.0 14.0 0.00 0.00 0.00 87 1009.4
20260902144405 82 221 3.0 14.0 0.00 0.00 0.00 87 1009.4
20260902144305 82 202 3.0 14.0 0.00 0.00 0.00 87 1009.4
20260902144204 82 216 4.0 14.0 0.00 0.00 0.00 87 1009.3
20260902144104 82 214 4.0 14.0 0.00 0.00 0.00 87 1009.4
20260902144004 82 212 8.0 14.0 0.00 0.00 0.00 87 1009.4
20260902143904 82 255 8.0 14.0 0.00 0.00 0.00 87 1009.3
20260902143804 82 223 5.0 9.0 0.00 0.00 0.00 87 1009.3
20260902143704 82 254 4.0 7.0 0.00 0.00 0.00 87 1009.3
20260902143603 82 234 5.0 7.0 0.00 0.00 0.00 87 1009.4
20260902143504 82 228 4.0 7.0 0.00 0.00 0.00 87 1009.3
20260902143404 82 250 4.0 6.0 0.00 0.00 0.00 87 1009.3
20260902143304 82 255 4.0 6.0 0.00 0.00 0.00 87 1009.3
20260902143205 82 221 3.0 6.0 0.00 0.00 0.00 88 1009.3
20260902143104 82 226 4.0 6.0 0.00 0.00 0.00 88 1009.2
20260902143005 82 226 4.0 6.0 0.00 0.00 0.00 88 1009.3
20260902142906 82 234 3.0 6.0 0.00 0.00 0.00 88 1009.3
20260902142804 82 210 2.0 6.0 0.00 0.00 0.00 88 1009.3
20260902142705 82 199 2.0 6.0 0.00 0.00 0.00 88 1009.3
20260902142605 82 214 2.0 6.0 0.00 0.00 0.00 88 1009.3
20260902142505 81 202 3.0 6.0 0.00 0.00 0.00 88 1009.3
20260902142404 81 213 3.0 6.0 0.00 0.00 0.00 88 1009.3
20260902142306 81 223 4.0 6.0 0.00 0.00 0.00 88 1009.3
20260902142204 81 204 4.0 6.0 0.00 0.00 0.00 88 1009.3
20260902142103 81 214 4.0 6.0 0.00 0.00 0.00 88 1009.2
20260902142006 81 252 4.0 6.0 0.00 0.00 0.00 88 1009.2
20260902141904 81 250 4.0 6.0 0.00 0.00 0.00 88 1009.2
20260902141806 81 247 3.0 6.0 0.00 0.00 0.00 88 1009.3
20260902141703 81 244 4.0 6.0 0.00 0.00 0.00 88 1009.3
20260902141602 81 221 4.0 6.0 0.00 0.00 0.00 88 1009.2
20260902141506 81 221 3.0 6.0 0.00 0.00 0.00 88 1009.2
20260902141404 81 217 1.0 7.0 0.00 0.00 0.00 88 1009.3
20260902141303 81 207 1.0 7.0 0.00 0.00 0.00 88 1009.2
20260902141203 81 210 3.0 7.0 0.00 0.00 0.00 88 1009.3
20260902141104 81 241 4.0 7.0 0.00 0.00 0.00 88 1009.2
20260902141003 81 269 4.0 7.0 0.00 0.00 0.00 88 1009.3
20260902140904 81 224 3.0 7.0 0.00 0.00 0.00 88 1009.3
20260902140803 81 206 4.0 7.0 0.00 0.00 0.00 88 1009.2
20260902140703 81 238 4.0 7.0 0.00 0.00 0.00 88 1009.2
20260902140603 81 203 4.0 7.0 0.00 0.00 0.00 88 1009.2
20260902140505 81 235 4.0 7.0 0.00 0.00 0.00 88 1009.2
20260902140403 81 219 4.0 7.0 0.00 0.00 0.00 89 1009.2
20260902140303 81 264 4.0 7.0 0.00 0.00 0.00 89 1009.2
20260902140204 81 228 2.0 9.0 0.00 0.00 0.00 89 1009.3
20260902140104 81 220 2.0 9.0 0.00 0.00 0.00 89 1009.2
20260902140003 81 213 1.0 9.0 0.00 0.00 0.00 89 1009.3
20260902135904 81 219 2.0 9.0 0.00 0.00 0.00 89 1009.3
20260902135803 81 213 2.0 9.0 0.00 0.00 0.00 89 1009.3
20260902135703 81 212 2.0 9.0 0.00 0.00 0.00 89 1009.3
20260902135605 81 216 1.0 9.0 0.00 0.00 0.00 89 1009.3
20260902135503 81 220 1.0 9.0 0.00 0.00 0.00 89 1009.3
20260902135403 81 221 2.0 9.0 0.00 0.00 0.00 89 1009.3
20260902135306 81 223 3.0 9.0 0.00 0.00 0.00 89 1009.3
20260902135203 81 235 3.0 7.0 0.00 0.00 0.00 89 1009.3
20260902135104 81 223 4.0 7.0 0.00 0.00 0.00 89 1009.3
20260902135003 81 216 4.0 7.0 0.00 0.00 0.00 89 1009.3
20260902134905 81 252 3.0 7.0 0.00 0.00 0.00 89 1009.2
20260902134804 81 238 3.0 5.0 0.00 0.00 0.00 89 1009.2
20260902134703 81 244 3.0 5.0 0.00 0.00 0.00 89 1009.2
20260902134601 81 233 3.0 5.0 0.00 0.00 0.00 89 1009.4
20260902134500 81 221 2.0 7.0 0.00 0.00 0.00 90 1009.2
20260902134358 81 223 2.0 7.0 0.00 0.00 0.00 90 1009.3
20260902134258 81 228 2.0 7.0 0.00 0.00 0.00 90 1009.3
20260902134158 80 245 3.0 7.0 0.00 0.00 0.00 90 1009.2
20260902134055 80 220 3.0 7.0 0.00 0.00 0.00 90 1009.3
20260902133954 80 228 3.0 7.0 0.00 0.00 0.00 90 1009.3
20260902133852 80 258 2.0 7.0 0.00 0.00 0.00 90 1009.3
20260902133751 80 240 2.0 7.0 0.00 0.00 0.00 90 1009.3
20260902133650 80 243 3.0 7.0 0.00 0.00 0.00 90 1009.2
20260902133547 80 252 3.0 7.0 0.00 0.00 0.00 90 1009.3
20260902133441 80 212 2.0 6.0 0.00 0.00 0.00 90 1009.3
20260902133338 80 207 2.0 6.0 0.00 0.00 0.00 90 1009.2
20260902133232 80 219 2.0 6.0 0.00 0.00 0.00 90 1009.3
20260902133130 80 199 3.0 6.0 0.00 0.00 0.00 90 1009.2
20260902133027 80 219 3.0 6.0 0.00 0.00 0.00 90 1009.2
20260902132924 80 228 3.0 6.0 0.00 0.00 0.00 90 1009.2
20260902132822 80 219 2.0 6.0 0.00 0.00 0.00 90 1009.2
20260902132716 80 216 2.0 5.0 0.00 0.00 0.00 90 1009.3
20260902132605 80 216 2.0 5.0 0.00 0.00 0.00 90 1009.1
20260902132503 80 213 2.0 5.0 0.00 0.00 0.00 90 1009.2
20260902132403 80 228 2.0 5.0 0.00 0.00 0.00 90 1009.2
20260902132306 80 186 1.0 5.0 0.00 0.00 0.00 90 1009.3
20260902132203 80 228 2.0 5.0 0.00 0.00 0.00 91 1009.2
20260902132103 80 219 2.0 5.0 0.00 0.00 0.00 91 1009.2
20260902132004 80 212 2.0 5.0 0.00 0.00 0.00 91 1009.3
20260902131902 80 213 2.0 5.0 0.00 0.00 0.00 91 1009.2
20260902131803 80 210 3.0 5.0 0.00 0.00 0.00 91 1009.3
20260902131704 80 231 3.0 5.0 0.00 0.00 0.00 91 1009.1
20260902131603 80 210 3.0 6.0 0.00 0.00 0.00 91 1009.1
20260902131504 80 207 3.0 6.0 0.00 0.00 0.00 91 1009.1
20260902131403 80 243 2.0 6.0 0.00 0.00 0.00 91 1009.1
20260902131303 80 220 2.0 6.0 0.00 0.00 0.00 91 1009.1
20260902131202 80 217 2.0 6.0 0.00 0.00 0.00 91 1009.0
20260902131102 80 203 2.0 6.0 0.00 0.00 0.00 91 1009.1
20260902131003 80 231 2.0 6.0 0.00 0.00 0.00 91 1009.1
20260902130903 80 228 1.0 6.0 0.00 0.00 0.00 91 1009.1
20260902130802 80 227 2.0 6.0 0.00 0.00 0.00 91 1009.0
20260902130703 80 226 4.0 6.0 0.00 0.00 0.00 91 1009.1
20260902130601 80 235 2.0 6.0 0.00 0.00 0.00 91 1009.0
20260902130503 80 224 1.0 5.0 0.00 0.00 0.00 91 1009.0
20260902130402 80 224 2.0 5.0 0.00 0.00 0.00 91 1009.0
20260902130300 80 221 3.0 5.0 0.00 0.00 0.00 91 1008.9
20260902130157 80 247 2.0 5.0 0.00 0.00 0.00 91 1009.0
20260902130047 80 230 2.0 4.0 0.00 0.00 0.00 91 1008.9
20260902125939 80 233 2.0 4.0 0.00 0.00 0.00 91 1008.9
20260902125832 80 233 2.0 4.0 0.00 0.00 0.00 91 1008.8
20260902125732 80 226 2.0 4.0 0.00 0.00 0.00 91 1008.9
20260902125632 80 219 2.0 4.0 0.00 0.00 0.00 91 1008.8
20260902125531 80 217 2.0 4.0 0.00 0.00 0.00 91 1008.8
20260902125433 80 216 1.0 4.0 0.00 0.00 0.00 91 1008.8
20260902125329 80 213 2.0 4.0 0.00 0.00 0.00 91 1008.8
20260902125229 80 212 2.0 4.0 0.00 0.00 0.00 91 1008.9
20260902125122 80 210 2.0 4.0 0.00 0.00 0.00 91 1008.8
20260902125009 80 217 2.0 6.0 0.00 0.00 0.00 91 1008.8
20260902124903 80 216 2.0 6.0 0.00 0.00 0.00 91 1008.7
20260902124802 80 209 2.0 6.0 0.00 0.00 0.00 91 1008.6
20260902124703 79 202 2.0 6.0 0.00 0.00 0.00 91 1008.6
20260902124603 80 199 1.0 6.0 0.00 0.00 0.00 91 1008.6
20260902124505 80 199 2.0 6.0 0.00 0.00 0.00 91 1008.6
20260902124403 79 197 2.0 6.0 0.00 0.00 0.00 91 1008.6
20260902124303 79 210 3.0 6.0 0.00 0.00 0.00 91 1008.5
20260902124203 79 213 3.0 6.0 0.00 0.00 0.00 91 1008.5
20260902124102 80 241 3.0 6.0 0.00 0.00 0.00 91 1008.4
20260902124003 79 212 2.0 6.0 0.00 0.00 0.00 91 1008.4
20260902123903 79 197 2.0 6.0 0.00 0.00 0.00 91 1008.4
20260902123802 79 231 1.0 6.0 0.00 0.00 0.00 91 1008.4
20260902123703 79 227 2.0 6.0 0.00 0.00 0.00 91 1008.3
20260902123603 79 228 2.0 6.0 0.00 0.00 0.00 91 1008.4
20260902123504 79 226 3.0 6.0 0.00 0.00 0.00 91 1008.3
20260902123402 79 224 2.0 6.0 0.00 0.00 0.00 91 1008.4
20260902123303 79 220 1.0 6.0 0.00 0.00 0.00 91 1008.3
20260902123202 79 220 2.0 6.0 0.00 0.00 0.00 91 1008.3
20260902123104 79 216 2.0 6.0 0.00 0.00 0.00 91 1008.3
20260902123004 79 214 2.0 6.0 0.00 0.00 0.00 91 1008.3
20260902122902 79 210 2.0 6.0 0.00 0.00 0.00 91 1008.2
20260902122802 79 216 3.0 6.0 0.00 0.00 0.00 91 1008.2
20260902122702 79 248 2.0 6.0 0.00 0.00 0.00 91 1008.1
20260902122603 79 217 1.0 4.0 0.00 0.00 0.00 91 1008.1
20260902122504 79 221 1.0 4.0 0.00 0.00 0.00 91 1008.1
20260902122402 79 217 1.0 3.0 0.00 0.00 0.00 91 1008.0
20260902122305 79 219 1.0 3.0 0.00 0.00 0.00 91 1008.0
20260902122202 79 219 1.0 3.0 0.00 0.00 0.00 91 1008.0
20260902122102 79 214 1.0 4.0 0.00 0.00 0.00 91 1007.9
20260902122003 79 214 2.0 4.0 0.00 0.00 0.00 91 1007.9
20260902121903 79 212 2.0 4.0 0.00 0.00 0.00 91 1007.9
20260902121802 79 221 2.0 4.0 0.00 0.00 0.00 91 1007.9
20260902121703 79 220 2.0 4.0 0.00 0.00 0.00 91 1007.9
20260902121602 79 202 1.0 4.0 0.00 0.00 0.00 91 1007.8
20260902121504 79 200 2.0 4.0 0.00 0.00 0.00 91 1007.8
20260902121402 79 199 2.0 4.0 0.00 0.00 0.00 91 1007.9
20260902121302 79 213 3.0 4.0 0.00 0.00 0.00 91 1007.8
20260902121202 79 214 2.0 4.0 0.00 0.00 0.00 91 1007.8
20260902121104 79 224 2.0 4.0 0.00 0.00 0.00 91 1007.9
20260902121004 79 226 2.0 4.0 0.00 0.00 0.00 91 1007.8
20260902120903 79 224 1.0 4.0 0.00 0.00 0.00 91 1007.7
20260902120803 79 223 2.0 4.0 0.00 0.00 0.00 91 1007.7
20260902120702 79 223 2.0 5.0 0.00 0.00 0.00 91 1007.7
20260902120602 79 226 1.0 5.0 0.00 0.00 0.00 91 1007.7
20260902120502 79 226 2.0 5.0 0.00 0.00 0.00 91 1007.8
20260902120402 79 227 2.0 5.0 0.00 0.00 0.00 91 1007.8
20260902120302 79 220 2.0 5.0 0.00 0.00 0.00 91 1007.7
20260902120201 79 227 2.0 5.0 0.00 0.00 0.00 91 1007.8
20260902120002 79 219 2.0 5.0 0.00 0.00 0.00 91 1007.8
20260902115905 79 212 2.0 5.0 0.00 0.00 0.00 91 1007.8
20260902115802 79 214 2.0 5.0 0.00 0.00 0.00 91 1007.8
20260902115703 79 224 2.0 4.0 0.00 0.00 0.00 91 1007.9
20260902115602 79 231 2.0 4.0 0.00 0.00 0.00 91 1007.9
20260902115502 79 234 2.0 4.0 0.00 0.00 0.00 91 1007.9
20260902115402 79 221 2.0 4.0 0.00 0.00 0.00 91 1007.9
20260902115306 79 223 2.0 4.0 0.00 0.00 0.00 91 1007.8
20260902115204 79 221 2.0 3.0 0.00 0.00 0.00 91 1007.9
20260902115103 79 217 2.0 3.0 0.00 0.00 0.00 91 1007.9
20260902115002 79 217 2.0 3.0 0.00 0.00 0.00 91 1007.9
20260902114902 79 216 2.0 4.0 0.00 0.00 0.00 91 1007.9
20260902114803 79 216 2.0 4.0 0.00 0.00 0.00 91 1007.8
20260902114703 79 216 2.0 4.0 0.00 0.00 0.00 91 1007.9
20260902114602 79 216 2.0 4.0 0.00 0.00 0.00 91 1007.8
20260902114503 79 216 2.0 4.0 0.00 0.00 0.00 91 1007.9
20260902114401 79 216 2.0 4.0 0.00 0.00 0.00 91 1007.9
20260902114301 79 216 2.0 4.0 0.00 0.00 0.00 91 1007.9
20260902114204 79 212 2.0 4.0 0.00 0.00 0.00 91 1007.9
20260902114103 79 216 2.0 4.0 0.00 0.00 0.00 91 1007.9
20260902114005 79 203 2.0 4.0 0.00 0.00 0.00 91 1007.9
20260902113902 79 217 2.0 4.0 0.00 0.00 0.00 91 1007.9
20260902113801 79 226 2.0 3.0 0.00 0.00 0.00 91 1007.9
20260902113702 79 224 2.0 3.0 0.00 0.00 0.00 90 1007.9
20260902113602 79 220 2.0 3.0 0.00 0.00 0.00 90 1007.9
20260902113502 79 220 1.0 3.0 0.00 0.00 0.00 90 1008.0
20260902113403 79 219 1.0 3.0 0.00 0.00 0.00 90 1007.9
20260902113304 79 219 0.0 3.0 0.00 0.00 0.00 90 1008.0
20260902113203 79 214 1.0 5.0 0.00 0.00 0.00 90 1008.0
20260902113102 79 214 1.0 5.0 0.00 0.00 0.00 90 1008.0
20260902113002 79 214 1.0 5.0 0.00 0.00 0.00 90 1008.0
20260902112902 79 224 1.0 5.0 0.00 0.00 0.00 90 1008.0
20260902112804 79 230 1.0 5.0 0.00 0.00 0.00 90 1007.9
20260902112702 79 234 1.0 5.0 0.00 0.00 0.00 90 1008.0
20260902112604 79 234 2.0 5.0 0.00 0.00 0.00 90 1007.9
20260902112502 79 233 2.0 5.0 0.00 0.00 0.00 90 1008.0
20260902112402 79 243 2.0 5.0 0.00 0.00 0.00 90 1007.9
20260902112305 79 243 4.0 5.0 0.00 0.00 0.00 90 1007.9
20260902112203 79 257 4.0 5.0 0.00 0.00 0.00 90 1007.9
20260902112102 79 226 1.0 3.0 0.00 0.00 0.00 90 1007.9
20260902112002 79 226 2.0 3.0 0.00 0.00 0.00 90 1007.9
20260902111859 79 226 2.0 3.0 0.00 0.00 0.00 90 1007.9
20260902111758 79 224 2.0 3.0 0.00 0.00 0.00 90 1007.9
20260902111659 79 228 2.0 3.0 0.00 0.00 0.00 90 1007.9
20260902111559 79 230 1.0 3.0 0.00 0.00 0.00 90 1007.9
20260902111458 79 200 1.0 3.0 0.00 0.00 0.00 90 1007.9
20260902111359 79 216 1.0 3.0 0.00 0.00 0.00 90 1007.9
20260902111300 79 216 1.0 3.0 0.00 0.00 0.00 90 1007.9
20260902111158 79 214 1.0 3.0 0.00 0.00 0.00 90 1007.9
20260902111058 79 214 1.0 3.0 0.00 0.00 0.00 90 1007.9
20260902110957 79 213 2.0 3.0 0.00 0.00 0.00 90 1007.9
20260902110859 79 207 1.0 3.0 0.00 0.00 0.00 90 1007.9
20260902110759 79 207 1.0 3.0 0.00 0.00 0.00 90 1007.7
20260902110658 79 207 1.0 3.0 0.00 0.00 0.00 90 1007.8
20260902110558 79 206 0.0 3.0 0.00 0.00 0.00 90 1007.8
20260902110500 79 206 0.0 3.0 0.00 0.00 0.00 90 1007.8
20260902110359 79 206 1.0 3.0 0.00 0.00 0.00 90 1007.8
20260902110258 79 219 1.0 3.0 0.00 0.00 0.00 90 1007.8
20260902110158 79 219 1.0 3.0 0.00 0.00 0.00 90 1007.8
20260902110057 79 223 2.0 3.0 0.00 0.00 0.00 90 1007.8
20260902105957 79 226 1.0 3.0 0.00 0.00 0.00 90 1007.8
20260902105859 79 224 1.0 3.0 0.00 0.00 0.00 90 1007.9
20260902105757 79 224 1.0 3.0 0.00 0.00 0.00 90 1007.9
20260902105658 79 224 1.0 3.0 0.00 0.00 0.00 90 1007.8
20260902105558 79 237 1.0 2.0 0.00 0.00 0.00 90 1007.8
20260902105454 79 237 1.0 2.0 0.00 0.00 0.00 90 1007.9
20260902105349 79 243 1.0 3.0 0.00 0.00 0.00 90 1007.9
20260902105249 79 244 1.0 3.0 0.00 0.00 0.00 90 1007.9
20260902105146 79 244 1.0 3.0 0.00 0.00 0.00 90 1007.9
20260902105041 79 248 1.0 3.0 0.00 0.00 0.00 90 1008.0
20260902104932 79 250 1.0 3.0 0.00 0.00 0.00 90 1008.0
20260902104832 79 250 1.0 3.0 0.00 0.00 0.00 90 1007.9
20260902104730 79 251 1.0 3.0 0.00 0.00 0.00 90 1008.0
20260902104631 79 252 1.0 3.0 0.00 0.00 0.00 90 1007.9
20260902104531 79 252 2.0 4.0 0.00 0.00 0.00 90 1007.9
20260902104432 79 252 2.0 4.0 0.00 0.00 0.00 90 1007.9
20260902104331 79 252 2.0 4.0 0.00 0.00 0.00 90 1007.9
20260902104232 79 251 2.0 4.0 0.00 0.00 0.00 90 1007.9
20260902104132 79 252 2.0 4.0 0.00 0.00 0.00 90 1007.9
20260902104032 79 252 2.0 4.0 0.00 0.00 0.00 89 1008.0
20260902103932 79 252 2.0 4.0 0.00 0.00 0.00 89 1007.9
20260902103832 79 251 2.0 4.0 0.00 0.00 0.00 89 1008.0
20260902103733 79 251 2.0 4.0 0.00 0.00 0.00 89 1008.0
20260902103631 79 251 2.0 4.0 0.00 0.00 0.00 89 1007.9
20260902103532 79 251 2.0 4.0 0.00 0.00 0.00 89 1008.0
20260902103432 79 250 2.0 3.0 0.00 0.00 0.00 89 1007.9
20260902103331 79 248 2.0 3.0 0.00 0.00 0.00 89 1008.0
20260902103233 79 245 2.0 3.0 0.00 0.00 0.00 89 1008.0
20260902103131 79 245 2.0 3.0 0.00 0.00 0.00 89 1008.0
20260902103032 79 245 1.0 3.0 0.00 0.00 0.00 89 1007.9
20260902102933 79 245 2.0 4.0 0.00 0.00 0.00 89 1007.9
20260902102831 79 244 2.0 4.0 0.00 0.00 0.00 89 1007.9
20260902102732 79 244 2.0 4.0 0.00 0.00 0.00 89 1007.9
20260902102619 79 244 2.0 4.0 0.00 0.00 0.00 89 1008.0
20260902102519 80 243 2.0 4.0 0.00 0.00 0.00 89 1007.9
20260902102417 80 243 2.0 4.0 0.00 0.00 0.00 89 1007.9
20260902102310 80 243 2.0 4.0 0.00 0.00 0.00 89 1007.9
20260902102210 80 243 2.0 4.0 0.00 0.00 0.00 89 1007.9
20260902102106 80 243 2.0 4.0 0.00 0.00 0.00 89 1007.9
20260902102003 80 243 2.0 4.0 0.00 0.00 0.00 89 1007.9
20260902101904 80 241 2.0 4.0 0.00 0.00 0.00 89 1007.8
20260902101804 80 241 2.0 4.0 0.00 0.00 0.00 89 1007.8
20260902101703 80 240 2.0 4.0 0.00 0.00 0.00 89 1007.8
20260902101604 80 238 2.0 4.0 0.00 0.00 0.00 89 1007.9
20260902101504 80 238 2.0 4.0 0.00 0.00 0.00 89 1007.7
20260902101404 80 238 1.0 4.0 0.00 0.00 0.00 89 1007.7
20260902101303 80 235 2.0 4.0 0.00 0.00 0.00 89 1007.7
20260902101202 80 235 2.0 4.0 0.00 0.00 0.00 89 1007.6
20260902101104 80 217 0.0 3.0 0.00 0.00 0.00 89 1007.6
20260902101002 80 217 1.0 3.0 0.00 0.00 0.00 89 1007.7
20260902100904 80 217 1.0 3.0 0.00 0.00 0.00 89 1007.7
20260902100804 80 217 1.0 3.0 0.00 0.00 0.00 89 1007.6
20260902100702 80 219 1.0 3.0 0.00 0.00 0.00 89 1007.7
20260902100604 80 219 1.0 3.0 0.00 0.00 0.00 89 1007.6
20260902100504 80 219 1.0 3.0 0.00 0.00 0.00 89 1007.7
20260902100404 80 219 1.0 3.0 0.00 0.00 0.00 89 1007.6
20260902100304 80 217 1.0 3.0 0.00 0.00 0.00 89 1007.7
20260902100202 80 217 1.0 3.0 0.00 0.00 0.00 89 1007.6
20260902100003 80 206 1.0 3.0 0.00 0.00 0.00 89 1007.6
20260902095903 80 206 1.0 3.0 0.00 0.00 0.00 89 1007.7
20260902095804 80 207 0.0 3.0 0.00 0.00 0.00 89 1007.6
20260902095703 80 207 0.0 3.0 0.00 0.00 0.00 89 1007.7
20260902095604 80 207 1.0 3.0 0.00 0.00 0.00 89 1007.7
20260902095504 80 209 1.0 3.0 0.00 0.00 0.00 89 1007.7
20260902095402 80 206 0.0 3.0 0.00 0.00 0.00 89 1007.6
20260902095306 80 207 0.0 3.0 0.00 0.00 0.00 88 1007.6
20260902095204 80 207 0.0 3.0 0.00 0.00 0.00 88 1007.7
20260902095102 80 207 1.0 3.0 0.00 0.00 0.00 88 1007.7
20260902095005 80 209 1.0 4.0 0.00 0.00 0.00 88 1007.7
20260902094902 80 207 1.0 4.0 0.00 0.00 0.00 88 1007.7
20260902094802 80 219 1.0 4.0 0.00 0.00 0.00 88 1007.7
20260902094704 80 219 2.0 4.0 0.00 0.00 0.00 88 1007.7
20260902094603 80 212 1.0 4.0 0.00 0.00 0.00 88 1007.7
20260902094502 80 210 2.0 4.0 0.00 0.00 0.00 88 1007.7
20260902094403 80 214 1.0 4.0 0.00 0.00 0.00 88 1007.7
20260902094303 80 216 1.0 5.0 0.00 0.00 0.00 88 1007.7
20260902094203 80 217 1.0 5.0 0.00 0.00 0.00 88 1007.7
20260902094102 80 223 2.0 5.0 0.00 0.00 0.00 88 1007.7
20260902094003 80 206 1.0 5.0 0.00 0.00 0.00 88 1007.8
20260902093903 80 203 1.0 5.0 0.00 0.00 0.00 88 1007.7
20260902093804 80 207 1.0 5.0 0.00 0.00 0.00 88 1007.7
20260902093704 80 213 1.0 5.0 0.00 0.00 0.00 88 1007.7
20260902093603 80 213 1.0 5.0 0.00 0.00 0.00 88 1007.7
20260902093503 80 213 1.0 5.0 0.00 0.00 0.00 88 1007.6
20260902093402 80 213 1.0 5.0 0.00 0.00 0.00 88 1007.6
20260902093303 80 221 0.0 3.0 0.00 0.00 0.00 88 1007.7
20260902093202 80 221 1.0 3.0 0.00 0.00 0.00 88 1007.6
20260902093103 80 221 1.0 3.0 0.00 0.00 0.00 88 1007.7
20260902093004 80 220 1.0 3.0 0.00 0.00 0.00 88 1007.8
20260902092903 80 220 1.0 3.0 0.00 0.00 0.00 88 1007.7
20260902092803 80 221 1.0 3.0 0.00 0.00 0.00 88 1007.8
20260902092702 80 221 1.0 3.0 0.00 0.00 0.00 88 1007.8
20260902092603 80 221 2.0 3.0 0.00 0.00 0.00 88 1007.8
20260902092503 80 220 2.0 3.0 0.00 0.00 0.00 88 1007.8
20260902092403 80 220 1.0 3.0 0.00 0.00 0.00 88 1007.9
20260902092305 80 219 0.0 3.0 0.00 0.00 0.00 88 1007.9
20260902092204 80 219 1.0 3.0 0.00 0.00 0.00 88 1007.8
20260902092103 80 219 1.0 3.0 0.00 0.00 0.00 88 1007.8
20260902092004 80 219 1.0 3.0 0.00 0.00 0.00 88 1007.9
20260902091902 80 231 1.0 4.0 0.00 0.00 0.00 88 1007.8
20260902091803 80 231 1.0 4.0 0.00 0.00 0.00 88 1007.8
20260902091702 80 231 1.0 4.0 0.00 0.00 0.00 88 1007.8
20260902091604 80 231 2.0 4.0 0.00 0.00 0.00 87 1007.8
20260902091503 80 230 1.0 4.0 0.00 0.00 0.00 87 1007.8
20260902091403 80 231 1.0 4.0 0.00 0.00 0.00 87 1007.8
20260902091303 80 231 1.0 4.0 0.00 0.00 0.00 87 1007.8
20260902091203 80 233 1.0 5.0 0.00 0.00 0.00 87 1007.8
20260902091104 80 231 1.0 5.0 0.00 0.00 0.00 87 1007.8
20260902091005 80 231 2.0 5.0 0.00 0.00 0.00 87 1007.8
20260902090903 80 244 2.0 5.0 0.00 0.00 0.00 87 1007.9
20260902090803 80 252 2.0 5.0 0.00 0.00 0.00 87 1007.8
20260902090702 80 235 1.0 5.0 0.00 0.00 0.00 87 1007.8
20260902090602 80 235 2.0 5.0 0.00 0.00 0.00 87 1007.8
20260902090504 80 237 2.0 5.0 0.00 0.00 0.00 87 1007.7
20260902090405 80 231 2.0 5.0 0.00 0.00 0.00 87 1007.7
20260902090303 80 243 3.0 5.0 0.00 0.00 0.00 87 1007.7
20260902090202 80 240 2.0 4.0 0.00 0.00 0.00 87 1007.7
20260902090104 80 213 1.0 4.0 0.00 0.00 0.00 87 1007.7
20260902090005 80 213 1.0 4.0 0.00 0.00 0.00 87 1007.7
20260902085903 80 223 1.0 4.0 0.00 0.00 0.00 87 1007.7
20260902085804 80 223 2.0 4.0 0.00 0.00 0.00 87 1007.7
20260902085703 80 221 2.0 4.0 0.00 0.00 0.00 87 1007.7
20260902085603 80 202 1.0 3.0 0.00 0.00 0.00 87 1007.7
20260902085502 80 203 0.0 3.0 0.00 0.00 0.00 87 1007.7
20260902085403 80 202 1.0 3.0 0.00 0.00 0.00 87 1007.6
20260902085306 80 202 1.0 3.0 0.00 0.00 0.00 87 1007.7
20260902085202 80 203 1.0 3.0 0.00 0.00 0.00 87 1007.6
20260902085103 80 203 1.0 3.0 0.00 0.00 0.00 87 1007.6
20260902085004 80 202 1.0 3.0 0.00 0.00 0.00 87 1007.6
20260902084903 80 203 1.0 4.0 0.00 0.00 0.00 87 1007.6
20260902084803 80 203 0.0 4.0 0.00 0.00 0.00 87 1007.6
20260902084703 80 226 2.0 4.0 0.00 0.00 0.00 87 1007.5
20260902084603 80 226 2.0 4.0 0.00 0.00 0.00 87 1007.7
20260902084503 80 224 2.0 4.0 0.00 0.00 0.00 87 1007.6
20260902084403 80 226 1.0 4.0 0.00 0.00 0.00 87 1007.6
20260902084302 80 210 1.0 4.0 0.00 0.00 0.00 87 1007.6
20260902084202 80 210 1.0 4.0 0.00 0.00 0.00 87 1007.7
20260902084104 80 210 2.0 4.0 0.00 0.00 0.00 87 1007.6
20260902084004 80 209 1.0 4.0 0.00 0.00 0.00 87 1007.7
20260902083902 80 210 0.0 6.0 0.00 0.00 0.00 87 1007.7
20260902083802 80 210 0.0 6.0 0.00 0.00 0.00 87 1007.7
20260902083702 80 210 0.0 7.0 0.00 0.00 0.00 87 1007.7
20260902083603 80 210 1.0 7.0 0.00 0.00 0.00 87 1007.7
20260902083503 80 209 2.0 7.0 0.00 0.00 0.00 87 1007.7
20260902083403 80 269 1.0 7.0 0.00 0.00 0.00 86 1007.7
20260902083303 80 214 1.0 7.0 0.00 0.00 0.00 86 1007.7
20260902083202 80 219 1.0 7.0 0.00 0.00 0.00 86 1007.7
20260902083102 80 219 2.0 7.0 0.00 0.00 0.00 86 1007.7
20260902083005 80 221 2.0 7.0 0.00 0.00 0.00 86 1007.7
20260902082904 80 238 3.0 7.0 0.00 0.00 0.00 86 1007.7
20260902082804 80 241 3.0 7.0 0.00 0.00 0.00 86 1007.7
20260902082703 80 212 2.0 5.0 0.00 0.00 0.00 86 1007.7
20260902082602 80 227 2.0 5.0 0.00 0.00 0.00 86 1007.7
20260902082503 81 210 1.0 5.0 0.00 0.00 0.00 86 1007.7
20260902082403 81 209 1.0 5.0 0.00 0.00 0.00 86 1007.7
20260902082308 81 213 2.0 5.0 0.00 0.00 0.00 86 1007.7
20260902082202 81 204 2.0 5.0 0.00 0.00 0.00 86 1007.7
20260902082104 81 206 2.0 5.0 0.00 0.00 0.00 86 1007.7
20260902082002 81 221 3.0 5.0 0.00 0.00 0.00 86 1007.7
20260902081902 81 206 3.0 5.0 0.00 0.00 0.00 86 1007.7
20260902081803 81 224 3.0 5.0 0.00 0.00 0.00 86 1007.7
20260902081702 81 188 2.0 5.0 0.00 0.00 0.00 86 1007.7
20260902081603 81 223 2.0 5.0 0.00 0.00 0.00 86 1007.7
20260902081504 81 231 2.0 6.0 0.00 0.00 0.00 86 1007.7
20260902081403 81 203 2.0 6.0 0.00 0.00 0.00 86 1007.7
20260902081301 81 220 2.0 7.0 0.00 0.00 0.00 86 1007.7
20260902081202 81 219 2.0 7.0 0.00 0.00 0.00 85 1007.7
20260902081105 81 227 2.0 7.0 0.00 0.00 0.00 85 1007.7
20260902081004 81 228 2.0 7.0 0.00 0.00 0.00 85 1007.7
20260902080902 81 227 2.0 7.0 0.00 0.00 0.00 85 1007.7
20260902080803 81 224 3.0 7.0 0.00 0.00 0.00 85 1007.7
20260902080702 81 226 4.0 7.0 0.00 0.00 0.00 85 1007.6
20260902080604 81 217 4.0 7.0 0.00 0.00 0.00 85 1007.6
20260902080504 81 212 4.0 7.0 0.00 0.00 0.00 85 1007.6
20260902080402 81 231 3.0 7.0 0.00 0.00 0.00 85 1007.6
20260902080303 81 212 2.0 5.0 0.00 0.00 0.00 85 1007.6
20260902080202 81 214 2.0 5.0 0.00 0.00 0.00 85 1007.6
20260902080004 81 209 2.0 5.0 0.00 0.00 0.00 85 1007.6
20260902075902 81 252 2.0 5.0 0.00 0.00 0.00 84 1007.6
20260902075803 81 206 2.0 5.0 0.00 0.00 0.00 84 1007.7
20260902075702 81 231 2.0 5.0 0.00 0.00 0.00 84 1007.6
20260902075604 81 226 3.0 5.0 0.00 0.00 0.00 84 1007.6
20260902075503 81 233 1.0 5.0 0.00 0.00 0.00 84 1007.6
20260902075403 81 223 1.0 4.0 0.00 0.00 0.00 84 1007.7
20260902075306 81 224 1.0 4.0 0.00 0.00 0.00 84 1007.6
20260902075202 81 219 2.0 4.0 0.00 0.00 0.00 84 1007.6
20260902075103 81 216 2.0 4.0 0.00 0.00 0.00 84 1007.7
20260902075003 81 206 2.0 4.0 0.00 0.00 0.00 83 1007.7
20260902074903 81 204 2.0 4.0 0.00 0.00 0.00 83 1007.7
20260902074804 81 237 1.0 4.0 0.00 0.00 0.00 83 1007.7
20260902074702 81 244 2.0 4.0 0.00 0.00 0.00 83 1007.7
20260902074603 81 248 2.0 5.0 0.00 0.00 0.00 83 1007.7
20260902074502 81 234 2.0 5.0 0.00 0.00 0.00 83 1007.8
20260902074404 81 234 2.0 6.0 0.00 0.00 0.00 83 1007.8
20260902074303 81 233 2.0 6.0 0.00 0.00 0.00 83 1007.8
20260902074204 81 234 2.0 6.0 0.00 0.00 0.00 83 1007.8
20260902074103 81 234 2.0 6.0 0.00 0.00 0.00 83 1007.8
20260902074003 81 234 2.0 6.0 0.00 0.00 0.00 83 1007.8
20260902073903 81 244 3.0 6.0 0.00 0.00 0.00 83 1007.8
20260902073802 81 235 4.0 6.0 0.00 0.00 0.00 83 1007.9
20260902073702 81 221 3.0 6.0 0.00 0.00 0.00 83 1007.8
20260902073603 81 226 4.0 6.0 0.00 0.00 0.00 83 1007.8
20260902073503 81 230 3.0 6.0 0.00 0.00 0.00 83 1007.9
20260902073403 81 231 3.0 5.0 0.00 0.00 0.00 83 1007.9
20260902073302 81 227 4.0 5.0 0.00 0.00 0.00 83 1007.8
20260902073202 81 220 4.0 5.0 0.00 0.00 0.00 83 1007.9
20260902073103 81 228 3.0 6.0 0.00 0.00 0.00 83 1007.9
20260902073002 81 216 3.0 6.0 0.00 0.00 0.00 83 1007.9
20260902072903 81 220 3.0 6.0 0.00 0.00 0.00 83 1007.8
20260902072802 81 247 3.0 6.0 0.00 0.00 0.00 83 1007.9
20260902072703 81 217 3.0 6.0 0.00 0.00 0.00 82 1007.8
20260902072601 81 221 3.0 6.0 0.00 0.00 0.00 82 1007.8
20260902072503 81 226 3.0 6.0 0.00 0.00 0.00 82 1007.7
20260902072402 80 212 2.0 6.0 0.00 0.00 0.00 82 1007.8
20260902072308 80 207 2.0 6.0 0.00 0.00 0.00 82 1007.8
20260902072203 80 217 3.0 6.0 0.00 0.00 0.00 82 1007.7
20260902072103 80 206 2.0 5.0 0.00 0.00 0.00 81 1007.7
20260902072005 80 195 1.0 4.0 0.00 0.00 0.00 81 1007.7
20260902071903 80 209 1.0 4.0 0.00 0.00 0.00 81 1007.7
20260902071803 80 210 2.0 4.0 0.00 0.00 0.00 81 1007.7
20260902071702 80 210 2.0 4.0 0.00 0.00 0.00 81 1007.8
20260902071603 80 202 2.0 4.0 0.00 0.00 0.00 81 1007.7
20260902071502 81 197 2.0 4.0 0.00 0.00 0.00 81 1007.7
20260902071404 81 216 2.0 4.0 0.00 0.00 0.00 81 1007.7
20260902071304 81 220 2.0 4.0 0.00 0.00 0.00 81 1007.7
20260902071203 81 220 2.0 4.0 0.00 0.00 0.00 81 1007.8
20260902071102 81 220 2.0 4.0 0.00 0.00 0.00 81 1007.8
20260902071004 81 221 2.0 4.0 0.00 0.00 0.00 81 1007.8
20260902070903 81 221 2.0 4.0 0.00 0.00 0.00 81 1007.9
20260902070804 81 224 1.0 3.0 0.00 0.00 0.00 81 1007.9
20260902070702 81 224 2.0 3.0 0.00 0.00 0.00 81 1007.9
20260902070601 81 214 2.0 3.0 0.00 0.00 0.00 81 1007.9
20260902070544 80 216 1.0 3.0 0.00 0.00 0.00 81 1008.0
20260902070528 81 213 2.0 3.0 0.00 0.00 0.00 81 1007.9
20260902070459 81 213 2.0 3.0 0.00 0.00 0.00 81 1007.9
20260902070433 80 217 1.0 3.0 0.00 0.00 0.00 81 1007.9
20260902070006 80 213 2.0 3.0 0.00 0.00 0.00 81 1007.9
20260902065903 80 214 1.0 3.0 0.00 0.00 0.00 80 1007.9
20260902065803 80 213 1.0 2.0 0.00 0.00 0.00 80 1008.0
20260902065703 80 213 1.0 2.0 0.00 0.00 0.00 80 1007.9
20260902065603 80 213 1.0 2.0 0.00 0.00 0.00 80 1007.9
20260902065503 80 213 1.0 2.0 0.00 0.00 0.00 80 1007.9
20260902065402 80 213 1.0 2.0 0.00 0.00 0.00 80 1007.8
20260902065306 80 213 1.0 3.0 0.00 0.00 0.00 80 1007.8
20260902065203 80 213 1.0 3.0 0.00 0.00 0.00 80 1007.9
20260902065103 80 212 1.0 3.0 0.00 0.00 0.00 80 1007.9
20260902065003 80 212 1.0 3.0 0.00 0.00 0.00 80 1007.9
20260902064905 80 212 1.0 3.0 0.00 0.00 0.00 80 1007.9
20260902064803 80 212 1.0 3.0 0.00 0.00 0.00 80 1007.8
20260902064701 80 212 1.0 3.0 0.00 0.00 0.00 80 1007.8
20260902064603 80 212 1.0 3.0 0.00 0.00 0.00 80 1007.8
20260902064502 80 212 2.0 3.0 0.00 0.00 0.00 80 1007.8
20260902064404 80 212 2.0 3.0 0.00 0.00 0.00 80 1007.7
20260902064302 80 209 2.0 3.0 0.00 0.00 0.00 80 1007.9
20260902064204 80 207 2.0 3.0 0.00 0.00 0.00 80 1007.9
20260902064103 80 207 2.0 3.0 0.00 0.00 0.00 80 1007.8
20260902064002 80 207 2.0 3.0 0.00 0.00 0.00 80 1007.8
20260902063904 80 207 2.0 3.0 0.00 0.00 0.00 80 1007.8
20260902063804 80 207 1.0 2.0 0.00 0.00 0.00 80 1007.7
20260902063704 81 207 1.0 2.0 0.00 0.00 0.00 79 1007.8
20260902063602 80 207 1.0 2.0 0.00 0.00 0.00 79 1007.7
20260902063503 80 207 0.0 2.0 0.00 0.00 0.00 79 1007.7
20260902063405 81 207 0.0 2.0 0.00 0.00 0.00 79 1007.7
20260902063303 81 207 0.0 2.0 0.00 0.00 0.00 79 1007.8
20260902063203 81 207 0.0 2.0 0.00 0.00 0.00 79 1007.7
20260902063103 81 207 1.0 2.0 0.00 0.00 0.00 79 1007.7
20260902063003 81 207 2.0 2.0 0.00 0.00 0.00 79 1007.7
20260902062905 80 207 2.0 3.0 0.00 0.00 0.00 79 1007.8
20260902062804 80 207 2.0 3.0 0.00 0.00 0.00 79 1007.8
20260902062702 80 207 1.0 3.0 0.00 0.00 0.00 80 1007.8
20260902062602 80 207 1.0 3.0 0.00 0.00 0.00 80 1007.7
20260902062502 80 207 0.0 3.0 0.00 0.00 0.00 80 1007.7
20260902062404 80 207 1.0 3.0 0.00 0.00 0.00 80 1007.7
20260902062305 80 207 1.0 3.0 0.00 0.00 0.00 80 1007.7
20260902062204 80 207 1.0 3.0 0.00 0.00 0.00 80 1007.6
20260902062103 80 207 2.0 3.0 0.00 0.00 0.00 81 1007.6
20260902062003 80 207 1.0 3.0 0.00 0.00 0.00 81 1007.6
20260902061903 80 209 1.0 4.0 0.00 0.00 0.00 81 1007.5
20260902061804 80 209 1.0 4.0 0.00 0.00 0.00 81 1007.6
20260902061702 80 216 1.0 4.0 0.00 0.00 0.00 81 1007.5
20260902061602 80 219 1.0 4.0 0.00 0.00 0.00 81 1007.5
20260902061503 80 219 1.0 4.0 0.00 0.00 0.00 81 1007.6
20260902061403 80 206 2.0 4.0 0.00 0.00 0.00 82 1007.5
20260902061303 80 206 2.0 4.0 0.00 0.00 0.00 82 1007.5
20260902061203 80 206 2.0 4.0 0.00 0.00 0.00 82 1007.5
20260902061104 80 206 2.0 4.0 0.00 0.00 0.00 82 1007.4
20260902061004 80 206 2.0 4.0 0.00 0.00 0.00 82 1007.5
20260902060903 80 204 1.0 4.0 0.00 0.00 0.00 82 1007.5
20260902060803 80 210 0.0 4.0 0.00 0.00 0.00 82 1007.4
20260902060703 80 210 1.0 4.0 0.00 0.00 0.00 82 1007.5
20260902060603 80 210 2.0 5.0 0.00 0.00 0.00 82 1007.5
20260902060504 80 212 2.0 5.0 0.00 0.00 0.00 82 1007.5
20260902060402 80 203 2.0 5.0 0.00 0.00 0.00 82 1007.5
20260902060303 80 204 2.0 5.0 0.00 0.00 0.00 82 1007.5
20260902060203 80 207 1.0 5.0 0.00 0.00 0.00 82 1007.5
20260902060002 80 206 2.0 5.0 0.00 0.00 0.00 82 1007.5
20260902055903 80 210 2.0 5.0 0.00 0.00 0.00 82 1007.5
20260902055802 80 217 3.0 5.0 0.00 0.00 0.00 82 1007.5
20260902055704 80 213 3.0 5.0 0.00 0.00 0.00 82 1007.5
20260902055602 80 207 2.0 4.0 0.00 0.00 0.00 82 1007.5
20260902055503 80 214 2.0 4.0 0.00 0.00 0.00 82 1007.5
20260902055402 80 214 2.0 4.0 0.00 0.00 0.00 82 1007.4
20260902055307 80 217 1.0 3.0 0.00 0.00 0.00 82 1007.5
20260902055202 80 213 1.0 3.0 0.00 0.00 0.00 82 1007.4
20260902055104 80 216 2.0 3.0 0.00 0.00 0.00 82 1007.5
20260902055002 80 204 2.0 3.0 0.00 0.00 0.00 82 1007.4
20260902054902 80 210 1.0 2.0 0.00 0.00 0.00 82 1007.4
20260902054803 80 209 1.0 2.0 0.00 0.00 0.00 82 1007.5
20260902054702 80 196 0.0 1.0 0.00 0.00 0.00 82 1007.5
20260902054603 80 200 0.0 0.0 0.00 0.00 0.00 82 1007.6
20260902054503 80 204 0.0 0.0 0.00 0.00 0.00 82 1007.6
20260902054402 80 196 0.0 0.0 0.00 0.00 0.00 82 1007.6
20260902054303 80 196 0.0 0.0 0.00 0.00 0.00 82 1007.7
20260902054201 80 190 0.0 0.0 0.00 0.00 0.00 82 1007.7
20260902054103 80 192 0.0 0.0 0.00 0.00 0.00 82 1007.8
20260902054005 80 196 0.0 1.0 0.00 0.00 0.00 82 1007.7
20260902053903 80 196 0.0 1.0 0.00 0.00 0.00 82 1007.6
20260902053804 80 196 0.0 2.0 0.00 0.00 0.00 82 1007.8
20260902053704 80 196 0.0 2.0 0.00 0.00 0.00 82 1007.8
20260902053602 80 195 0.0 2.0 0.00 0.00 0.00 82 1007.8
20260902053505 80 195 0.0 2.0 0.00 0.00 0.00 81 1007.8
20260902053403 80 189 0.0 2.0 0.00 0.00 0.00 81 1007.8
20260902053304 80 188 0.0 2.0 0.00 0.00 0.00 81 1007.8
20260902053202 80 188 0.0 2.0 0.00 0.00 0.00 81 1007.8
20260902053103 80 185 0.0 2.0 0.00 0.00 0.00 81 1007.8
20260902053002 80 185 1.0 2.0 0.00 0.00 0.00 81 1007.9
20260902052904 80 185 1.0 2.0 0.00 0.00 0.00 81 1007.9
20260902052803 80 130 1.0 2.0 0.00 0.00 0.00 81 1007.9
20260902052705 80 128 1.0 2.0 0.00 0.00 0.00 81 1007.9
20260902052601 80 128 1.0 2.0 0.00 0.00 0.00 81 1007.8
20260902052502 80 128 0.0 1.0 0.00 0.00 0.00 81 1007.8
20260902052404 80 124 0.0 0.0 0.00 0.00 0.00 81 1007.8
20260902052306 80 121 0.0 0.0 0.00 0.00 0.00 81 1007.7
20260902052203 80 121 0.0 0.0 0.00 0.00 0.00 81 1007.8
20260902052104 80 121 0.0 0.0 0.00 0.00 0.00 81 1007.8
20260902052003 80 120 0.0 0.0 0.00 0.00 0.00 81 1007.8
20260902051902 80 120 0.0 0.0 0.00 0.00 0.00 81 1007.8
20260902051802 80 120 0.0 0.0 0.00 0.00 0.00 81 1007.8
20260902051704 80 120 0.0 0.0 0.00 0.00 0.00 81 1007.7
20260902051604 80 120 0.0 0.0 0.00 0.00 0.00 81 1007.9
20260902051505 80 120 0.0 0.0 0.00 0.00 0.00 81 1007.9
20260902051402 80 120 0.0 0.0 0.00 0.00 0.00 81 1007.9
20260902051303 80 120 0.0 0.0 0.00 0.00 0.00 81 1007.8
20260902051202 80 120 0.0 0.0 0.00 0.00 0.00 81 1007.9
20260902051103 80 120 0.0 0.0 0.00 0.00 0.00 81 1007.9
20260902051006 80 120 0.0 0.0 0.00 0.00 0.00 81 1007.9
20260902050903 80 120 0.0 0.0 0.00 0.00 0.00 81 1007.9
20260902050802 80 120 0.0 0.0 0.00 0.00 0.00 81 1007.9
20260902050702 80 120 0.0 0.0 0.00 0.00 0.00 81 1007.8
20260902050603 80 120 0.0 0.0 0.00 0.00 0.00 81 1007.8
20260902050502 80 120 0.0 0.0 0.00 0.00 0.00 81 1007.9
20260902050402 80 120 0.0 0.0 0.00 0.00 0.00 81 1007.8
20260902050303 80 120 0.0 0.0 0.00 0.00 0.00 81 1007.8
20260902050205 80 120 0.0 0.0 0.00 0.00 0.00 81 1007.8
20260902050007 80 120 0.0 0.0 0.00 0.00 0.00 81 1007.8
20260902045905 80 120 0.0 0.0 0.00 0.00 0.00 81 1007.9
20260902045804 80 120 0.0 0.0 0.00 0.00 0.00 81 1008.0
20260902045703 80 120 0.0 0.0 0.00 0.00 0.00 81 1008.0
20260902045602 80 120 0.0 0.0 0.00 0.00 0.00 81 1007.9
20260902045502 80 120 0.0 0.0 0.00 0.00 0.00 81 1007.9
20260902045403 80 120 0.0 0.0 0.00 0.00 0.00 81 1008.0
20260902045306 80 120 0.0 0.0 0.00 0.00 0.00 81 1008.1
20260902045202 80 120 0.0 0.0 0.00 0.00 0.00 81 1008.0
20260902045103 80 120 0.0 0.0 0.00 0.00 0.00 81 1008.0
20260902045004 80 120 0.0 0.0 0.00 0.00 0.00 81 1008.0
20260902044902 81 120 0.0 0.0 0.00 0.00 0.00 81 1008.0
20260902044804 81 120 0.0 0.0 0.00 0.00 0.00 81 1008.0
20260902044702 81 120 0.0 0.0 0.00 0.00 0.00 81 1008.0
20260902044604 80 120 0.0 0.0 0.00 0.00 0.00 81 1008.0
20260902044503 80 120 0.0 0.0 0.00 0.00 0.00 81 1008.0
20260902044404 80 120 0.0 0.0 0.00 0.00 0.00 81 1007.9
20260902044303 80 120 0.0 0.0 0.00 0.00 0.00 81 1008.0
20260902044202 80 120 0.0 0.0 0.00 0.00 0.00 81 1008.0
20260902044103 80 120 0.0 0.0 0.00 0.00 0.00 81 1008.0
20260902044004 80 120 0.0 0.0 0.00 0.00 0.00 81 1008.0
20260902043903 80 120 0.0 0.0 0.00 0.00 0.00 81 1008.0
20260902043803 80 120 0.0 0.0 0.00 0.00 0.00 81 1008.0
20260902043702 80 120 0.0 0.0 0.00 0.00 0.00 81 1008.0
20260902043602 80 120 0.0 0.0 0.00 0.00 0.00 80 1008.1
20260902043504 80 120 0.0 0.0 0.00 0.00 0.00 80 1008.0
20260902043405 80 120 0.0 0.0 0.00 0.00 0.00 80 1007.9
20260902043303 80 120 0.0 0.0 0.00 0.00 0.00 80 1007.9
20260902043202 80 120 0.0 0.0 0.00 0.00 0.00 80 1007.9
20260902043103 80 120 0.0 0.0 0.00 0.00 0.00 80 1007.9
20260902043002 80 120 0.0 0.0 0.00 0.00 0.00 80 1008.0
20260902042902 81 120 0.0 0.0 0.00 0.00 0.00 80 1007.9
20260902042804 81 120 0.0 0.0 0.00 0.00 0.00 80 1008.0
20260902042705 81 120 0.0 0.0 0.00 0.00 0.00 80 1007.9
20260902042602 81 120 0.0 0.0 0.00 0.00 0.00 80 1007.9
20260902042502 81 120 0.0 0.0 0.00 0.00 0.00 80 1008.0
20260902042403 81 120 0.0 0.0 0.00 0.00 0.00 80 1008.0
20260902042307 81 120 0.0 0.0 0.00 0.00 0.00 80 1007.9
20260902042202 81 120 0.0 0.0 0.00 0.00 0.00 80 1007.9
20260902042105 81 120 0.0 0.0 0.00 0.00 0.00 80 1007.9
20260902042005 81 120 0.0 0.0 0.00 0.00 0.00 80 1007.9
20260902041904 81 118 0.0 0.0 0.00 0.00 0.00 80 1007.9
20260902041803 80 118 0.0 0.0 0.00 0.00 0.00 80 1008.0
20260902041702 80 118 0.0 0.0 0.00 0.00 0.00 79 1007.9
20260902041603 80 117 0.0 0.0 0.00 0.00 0.00 79 1007.9
20260902041506 80 117 0.0 0.0 0.00 0.00 0.00 79 1007.9
20260902041402 80 117 0.0 0.0 0.00 0.00 0.00 79 1008.0
20260902041302 80 117 0.0 0.0 0.00 0.00 0.00 79 1007.9
20260902041203 81 116 0.0 0.0 0.00 0.00 0.00 79 1007.9
20260902041103 81 116 0.0 0.0 0.00 0.00 0.00 79 1008.0
20260902041002 81 116 0.0 0.0 0.00 0.00 0.00 79 1008.0
20260902040904 81 86 0.0 0.0 0.00 0.00 0.00 79 1008.0
20260902040802 81 86 0.0 0.0 0.00 0.00 0.00 79 1008.0
20260902040703 81 86 0.0 0.0 0.00 0.00 0.00 79 1008.0
20260902040601 81 85 0.0 0.0 0.00 0.00 0.00 79 1008.0
20260902040503 81 85 0.0 0.0 0.00 0.00 0.00 79 1008.0
20260902040402 81 86 0.0 0.0 0.00 0.00 0.00 79 1007.9
20260902040302 81 86 0.0 0.0 0.00 0.00 0.00 79 1008.1
20260902040205 81 86 0.0 0.0 0.00 0.00 0.00 79 1008.0
20260902040103 81 86 0.0 0.0 0.00 0.00 0.00 79 1008.1
20260902040005 81 85 0.0 0.0 0.00 0.00 0.00 79 1008.1
20260902035903 81 86 0.0 0.0 0.00 0.00 0.00 79 1008.1
20260902035803 81 86 0.0 0.0 0.00 0.00 0.00 79 1008.1
20260902035703 81 85 0.0 0.0 0.00 0.00 0.00 80 1008.1
20260902035604 81 85 0.0 0.0 0.00 0.00 0.00 80 1008.1
20260902035502 81 85 0.0 0.0 0.00 0.00 0.00 80 1008.1
20260902035404 80 85 0.0 0.0 0.00 0.00 0.00 80 1008.1
20260902035305 80 85 0.0 0.0 0.00 0.00 0.00 80 1008.2
20260902035202 80 85 0.0 0.0 0.00 0.00 0.00 80 1008.2
20260902035102 80 85 0.0 0.0 0.00 0.00 0.00 80 1008.2
20260902035005 80 85 0.0 0.0 0.00 0.00 0.00 80 1008.2
20260902034901 80 85 0.0 0.0 0.00 0.00 0.00 80 1008.2
20260902034802 80 85 0.0 0.0 0.00 0.00 0.00 80 1008.2
20260902034703 80 85 0.0 0.0 0.00 0.00 0.00 80 1008.3
20260902034602 80 85 0.0 0.0 0.00 0.00 0.00 80 1008.2
20260902034503 80 85 0.0 0.0 0.00 0.00 0.00 80 1008.3
20260902034404 80 85 0.0 0.0 0.00 0.00 0.00 80 1008.2
20260902034303 81 85 0.0 0.0 0.00 0.00 0.00 80 1008.2
20260902034203 81 85 0.0 0.0 0.00 0.00 0.00 80 1008.2
20260902034103 80 85 0.0 0.0 0.00 0.00 0.00 80 1008.2
20260902034005 80 85 0.0 0.0 0.00 0.00 0.00 80 1008.3
20260902033903 80 85 0.0 0.0 0.00 0.00 0.00 80 1008.2
20260902033803 81 85 0.0 0.0 0.00 0.00 0.00 80 1008.2
20260902033703 81 85 0.0 0.0 0.00 0.00 0.00 80 1008.2
20260902033602 81 85 0.0 0.0 0.00 0.00 0.00 80 1008.2
20260902033503 81 85 0.0 0.0 0.00 0.00 0.00 80 1008.2
20260902033402 81 85 0.0 0.0 0.00 0.00 0.00 80 1008.3
20260902033304 81 85 0.0 0.0 0.00 0.00 0.00 80 1008.3
20260902033203 81 85 0.0 0.0 0.00 0.00 0.00 80 1008.2
20260902033103 81 85 0.0 0.0 0.00 0.00 0.00 79 1008.2
20260902033004 81 85 0.0 0.0 0.00 0.00 0.00 79 1008.2
20260902032903 81 85 0.0 0.0 0.00 0.00 0.00 79 1008.2
20260902032803 81 85 0.0 0.0 0.00 0.00 0.00 79 1008.2
20260902032703 81 85 0.0 0.0 0.00 0.00 0.00 79 1008.3
20260902032604 81 85 0.0 0.0 0.00 0.00 0.00 79 1008.2
20260902032502 81 85 0.0 0.0 0.00 0.00 0.00 79 1008.2
20260902032403 81 85 0.0 0.0 0.00 0.00 0.00 79 1008.2
20260902032306 81 85 0.0 0.0 0.00 0.00 0.00 79 1008.2
20260902032204 81 85 0.0 0.0 0.00 0.00 0.00 79 1008.0
20260902032104 81 85 0.0 0.0 0.00 0.00 0.00 79 1008.1
20260902032002 81 85 0.0 0.0 0.00 0.00 0.00 79 1008.0
20260902031903 81 85 0.0 0.0 0.00 0.00 0.00 79 1008.0
20260902031802 81 85 0.0 0.0 0.00 0.00 0.00 78 1008.1
20260902031704 81 85 0.0 0.0 0.00 0.00 0.00 79 1008.0
20260902031604 81 85 0.0 0.0 0.00 0.00 0.00 79 1008.0
20260902031504 81 85 0.0 0.0 0.00 0.00 0.00 79 1008.0
20260902031403 81 85 0.0 0.0 0.00 0.00 0.00 78 1008.0
20260902031303 81 85 0.0 0.0 0.00 0.00 0.00 78 1008.0
20260902031203 81 85 0.0 0.0 0.00 0.00 0.00 78 1008.0
20260902031103 81 85 0.0 0.0 0.00 0.00 0.00 78 1008.0
20260902031003 81 85 0.0 0.0 0.00 0.00 0.00 78 1008.0
20260902030901 81 85 0.0 0.0 0.00 0.00 0.00 78 1008.0
20260902030802 81 85 0.0 0.0 0.00 0.00 0.00 78 1007.9
20260902030703 81 85 0.0 0.0 0.00 0.00 0.00 78 1007.9
20260902030604 81 85 0.0 0.0 0.00 0.00 0.00 78 1007.8
20260902030503 81 85 0.0 0.0 0.00 0.00 0.00 78 1007.8
20260902030402 81 85 0.0 0.0 0.00 0.00 0.00 78 1007.9
20260902030303 81 85 0.0 0.0 0.00 0.00 0.00 78 1007.8
20260902030203 81 85 0.0 0.0 0.00 0.00 0.00 78 1007.8
20260902030104 81 85 0.0 0.0 0.00 0.00 0.00 78 1007.8
20260902030005 81 85 0.0 0.0 0.00 0.00 0.00 78 1007.7
20260902025903 82 85 0.0 0.0 0.00 0.00 0.00 78 1007.7
20260902025803 82 85 0.0 0.0 0.00 0.00 0.00 77 1007.7
20260902025702 82 85 0.0 0.0 0.00 0.00 0.00 77 1007.6
20260902025604 82 85 0.0 0.0 0.00 0.00 0.00 77 1007.7
20260902025502 82 85 0.0 0.0 0.00 0.00 0.00 77 1007.7
20260902025402 82 85 0.0 0.0 0.00 0.00 0.00 77 1007.7
20260902025306 82 85 0.0 0.0 0.00 0.00 0.00 77 1007.6
20260902025202 82 85 0.0 0.0 0.00 0.00 0.00 77 1007.7
20260902025103 82 85 0.0 0.0 0.00 0.00 0.00 77 1007.7
20260902025002 82 85 0.0 0.0 0.00 0.00 0.00 77 1007.7
20260902024902 82 85 0.0 0.0 0.00 0.00 0.00 77 1007.7
20260902024803 82 85 0.0 0.0 0.00 0.00 0.00 77 1007.6
20260902024702 82 85 0.0 0.0 0.00 0.00 0.00 78 1007.7
20260902024602 82 85 0.0 0.0 0.00 0.00 0.00 78 1007.7
20260902024504 82 85 0.0 0.0 0.00 0.00 0.00 78 1007.7
20260902024403 82 85 0.0 0.0 0.00 0.00 0.00 78 1007.7
20260902024303 82 86 0.0 0.0 0.00 0.00 0.00 78 1007.7
20260902024203 82 86 0.0 0.0 0.00 0.00 0.00 78 1007.7
20260902024102 81 86 0.0 0.0 0.00 0.00 0.00 78 1007.7
20260902024003 81 86 0.0 0.0 0.00 0.00 0.00 79 1007.6
20260902023902 81 86 0.0 0.0 0.00 0.00 0.00 78 1007.6
20260902023804 0 0.0 0.0 0.00 0.00 0.00 1007.5
20260902023702 0 0.0 0.0 0.00 0.00 0.00 1007.6
20260902023604 81 86 0.0 0.0 0.00 0.00 0.00 78 1007.5
20260902023505 81 86 0.0 0.0 0.00 0.00 0.00 78 1007.5
20260902023404 81 86 0.0 0.0 0.00 0.00 0.00 78 1007.4
20260902023304 81 86 0.0 0.0 0.00 0.00 0.00 78 1007.5
20260902023204 81 86 0.0 0.0 0.00 0.00 0.00 78 1007.5
20260902023103 81 86 0.0 0.0 0.00 0.00 0.00 78 1007.5
20260902023003 81 86 0.0 0.0 0.00 0.00 0.00 78 1007.5
20260902022903 81 86 0.0 0.0 0.00 0.00 0.00 78 1007.5
20260902022804 81 86 0.0 0.0 0.00 0.00 0.00 78 1007.5
20260902022703 81 86 0.0 0.0 0.00 0.00 0.00 78 1007.4
20260902022603 81 86 0.0 0.0 0.00 0.00 0.00 78 1007.4
20260902022503 81 86 0.0 0.0 0.00 0.00 0.00 78 1007.4
20260902022403 81 86 0.0 0.0 0.00 0.00 0.00 78 1007.4
20260902022305 81 86 0.0 0.0 0.00 0.00 0.00 78 1007.4
20260902022203 81 86 0.0 0.0 0.00 0.00 0.00 78 1007.4
20260902022103 81 86 0.0 0.0 0.00 0.00 0.00 78 1007.4
20260902022005 81 86 0.0 0.0 0.00 0.00 0.00 78 1007.4
20260902021902 81 86 0.0 0.0 0.00 0.00 0.00 78 1007.4
20260902021803 81 86 0.0 0.0 0.00 0.00 0.00 78 1007.4
20260902021704 81 86 0.0 0.0 0.00 0.00 0.00 78 1007.3
20260902021603 82 86 0.0 0.0 0.00 0.00 0.00 78 1007.4
20260902021504 82 86 0.0 0.0 0.00 0.00 0.00 77 1007.3
20260902021404 82 86 0.0 0.0 0.00 0.00 0.00 77 1007.3
20260902021302 82 86 0.0 0.0 0.00 0.00 0.00 77 1007.3
20260902021203 82 86 0.0 0.0 0.00 0.00 0.00 77 1007.2
20260902021103 82 86 0.0 0.0 0.00 0.00 0.00 77 1007.2
20260902021004 82 86 0.0 0.0 0.00 0.00 0.00 77 1007.3
20260902020903 82 86 0.0 0.0 0.00 0.00 0.00 77 1007.2
20260902020804 82 86 0.0 0.0 0.00 0.00 0.00 77 1007.3
20260902020703 82 86 0.0 0.0 0.00 0.00 0.00 77 1007.2
20260902020603 82 86 0.0 0.0 0.00 0.00 0.00 76 1007.2
20260902020503 82 86 0.0 0.0 0.00 0.00 0.00 76 1007.2
20260902020403 82 86 0.0 0.0 0.00 0.00 0.00 76 1007.2
20260902020302 82 86 0.0 0.0 0.00 0.00 0.00 76 1007.2
20260902020204 82 86 0.0 0.0 0.00 0.00 0.00 76 1007.2
20260902020103 82 86 0.0 0.0 0.00 0.00 0.00 76 1007.1
20260902020005 82 86 0.0 0.0 0.00 0.00 0.00 77 1007.1
20260902015903 82 86 0.0 0.0 0.00 0.00 0.00 77 1007.0
20260902015802 82 86 0.0 0.0 0.00 0.00 0.00 77 1006.9
20260902015704 82 86 0.0 0.0 0.00 0.00 0.00 77 1006.9
20260902015602 82 86 0.0 0.0 0.00 0.00 0.00 77 1006.9
20260902015504 82 86 0.0 0.0 0.00 0.00 0.00 76 1007.0
20260902015403 82 86 0.0 0.0 0.00 0.00 0.00 76 1006.9
20260902015305 82 86 0.0 0.0 0.00 0.00 0.00 76 1006.9
20260902015202 82 86 0.0 0.0 0.00 0.00 0.00 76 1006.8
20260902015103 82 86 0.0 0.0 0.00 0.00 0.00 77 1006.9
20260902015003 82 86 0.0 0.0 0.00 0.00 0.00 76 1006.9
20260902014905 82 86 0.0 0.0 0.00 0.00 0.00 76 1006.9
20260902014803 82 86 0.0 0.0 0.00 0.00 0.00 76 1006.9
20260902014702 82 86 0.0 0.0 0.00 0.00 0.00 76 1006.8
20260902014603 82 86 0.0 0.0 0.00 0.00 0.00 76 1006.8
20260902014504 82 86 0.0 0.0 0.00 0.00 0.00 76 1006.8
20260902014404 82 86 0.0 0.0 0.00 0.00 0.00 76 1006.8
20260902014303 82 86 0.0 0.0 0.00 0.00 0.00 76 1006.8
20260902014202 82 86 0.0 0.0 0.00 0.00 0.00 76 1006.8
20260902014101 82 86 0.0 0.0 0.00 0.00 0.00 76 1006.7
20260902014005 83 86 0.0 0.0 0.00 0.00 0.00 76 1006.8
20260902013904 83 86 0.0 0.0 0.00 0.00 0.00 76 1006.7
20260902013804 83 86 0.0 0.0 0.00 0.00 0.00 76 1006.6
20260902013703 83 86 0.0 0.0 0.00 0.00 0.00 76 1006.6
20260902013601 83 86 0.0 0.0 0.00 0.00 0.00 76 1006.6
20260902013503 83 86 0.0 0.0 0.00 0.00 0.00 76 1006.6
20260902013402 83 86 0.0 0.0 0.00 0.00 0.00 76 1006.6
20260902013303 83 86 0.0 0.0 0.00 0.00 0.00 75 1006.6
20260902013201 83 86 0.0 0.0 0.00 0.00 0.00 75 1006.6
20260902013052 83 86 0.0 0.0 0.00 0.00 0.00 75 1006.6
20260902012951 83 86 0.0 0.0 0.00 0.00 0.00 75 1006.5
20260902012847 83 86 0.0 0.0 0.00 0.00 0.00 75 1006.5
20260902012742 83 86 0.0 0.0 0.00 0.00 0.00 75 1006.5
20260902012641 83 86 0.0 0.0 0.00 0.00 0.00 75 1006.5
20260902012542 83 86 0.0 0.0 0.00 0.00 0.00 75 1006.6
20260902012441 83 86 0.0 0.0 0.00 0.00 0.00 74 1006.6
20260902012342 83 86 0.0 0.0 0.00 0.00 0.00 74 1006.5
20260902012241 83 86 0.0 0.0 0.00 0.00 0.00 75 1006.5
20260902012140 83 86 0.0 0.0 0.00 0.00 0.00 74 1006.6
20260902012040 83 86 0.0 0.0 0.00 0.00 0.00 74 1006.5
20260902011941 83 86 0.0 0.0 0.00 0.00 0.00 74 1006.6
20260902011843 83 86 0.0 0.0 0.00 0.00 0.00 74 1006.5
20260902011742 83 86 0.0 0.0 0.00 0.00 0.00 74 1006.5
20260902011642 83 86 0.0 0.0 0.00 0.00 0.00 74 1006.5
20260902011542 83 86 0.0 0.0 0.00 0.00 0.00 74 1006.6
20260902011442 83 86 0.0 0.0 0.00 0.00 0.00 74 1006.6
20260902011340 83 86 0.0 0.0 0.00 0.00 0.00 74 1006.5
20260902011240 83 86 0.0 0.0 0.00 0.00 0.00 74 1006.6
20260902011142 83 86 0.0 0.0 0.00 0.00 0.00 74 1006.5
20260902011042 84 86 0.0 1.0 0.00 0.00 0.00 74 1006.6
20260902010942 84 86 0.0 1.0 0.00 0.00 0.00 74 1006.6
20260902010842 84 86 0.0 1.0 0.00 0.00 0.00 74 1006.6
20260902010741 84 86 0.0 1.0 0.00 0.00 0.00 74 1006.6
20260902010643 84 86 0.0 2.0 0.00 0.00 0.00 74 1006.6
20260902010540 84 86 0.0 2.0 0.00 0.00 0.00 74 1006.6
20260902010441 84 86 0.0 2.0 0.00 0.00 0.00 74 1006.5
20260902010340 84 86 0.0 2.0 0.00 0.00 0.00 74 1006.6
20260902010240 84 86 0.0 2.0 0.00 0.00 0.00 74 1006.7
20260902010142 84 86 0.0 2.0 0.00 0.00 0.00 74 1006.7
20260902010041 84 86 0.0 2.0 0.00 0.00 0.00 74 1006.7
20260902005941 84 86 0.0 2.0 0.00 0.00 0.00 74 1006.7
20260902005840 84 86 0.0 2.0 0.00 0.00 0.00 74 1006.8
20260902005741 84 86 1.0 2.0 0.00 0.00 0.00 74 1006.7
20260902005640 84 86 1.0 2.0 0.00 0.00 0.00 74 1006.7
20260902005541 84 86 0.0 2.0 0.00 0.00 0.00 74 1006.7
20260902005442 84 86 0.0 2.0 0.00 0.00 0.00 74 1006.8
20260902005341 84 86 1.0 2.0 0.00 0.00 0.00 74 1006.7
20260902005242 84 86 1.0 2.0 0.00 0.00 0.00 74 1006.7
20260902005141 84 86 0.0 2.0 0.00 0.00 0.00 74 1006.7
20260902005042 84 86 0.0 2.0 0.00 0.00 0.00 74 1006.8
20260902004941 84 86 0.0 2.0 0.00 0.00 0.00 74 1006.8
20260902004842 84 86 0.0 3.0 0.00 0.00 0.00 74 1006.8
20260902004740 84 86 0.0 3.0 0.00 0.00 0.00 74 1006.7
20260902004639 84 86 0.0 3.0 0.00 0.00 0.00 73 1006.8
20260902004539 84 86 0.0 4.0 0.00 0.00 0.00 73 1006.8
20260902004441 84 86 0.0 4.0 0.00 0.00 0.00 73 1006.7
20260902004340 84 86 1.0 4.0 0.00 0.00 0.00 73 1006.7
20260902004239 84 86 0.0 4.0 0.00 0.00 0.00 73 1006.7
20260902004139 84 86 0.0 5.0 0.00 0.00 0.00 73 1006.7
20260902004039 84 86 0.0 5.0 0.00 0.00 0.00 73 1006.6
20260902003939 84 86 1.0 5.0 0.00 0.00 0.00 73 1006.8
20260902003839 84 89 2.0 5.0 0.00 0.00 0.00 73 1006.8
20260902003739 84 89 2.0 5.0 0.00 0.00 0.00 73 1006.7
20260902003640 84 90 2.0 5.0 0.00 0.00 0.00 73 1006.8
20260902003540 84 90 2.0 5.0 0.00 0.00 0.00 73 1006.7
20260902003441 84 92 3.0 5.0 0.00 0.00 0.00 73 1006.7
20260902003339 84 92 3.0 5.0 0.00 0.00 0.00 73 1006.7
20260902003242 84 90 3.0 5.0 0.00 0.00 0.00 73 1006.7
20260902003139 85 78 2.0 3.0 0.00 0.00 0.00 73 1006.7
20260902003039 85 71 2.0 3.0 0.00 0.00 0.00 73 1006.7
20260902002942 85 69 2.0 4.0 0.00 0.00 0.00 73 1006.6
20260902002841 85 68 1.0 4.0 0.00 0.00 0.00 73 1006.6
20260902002739 85 54 0.0 4.0 0.00 0.00 0.00 73 1006.7
20260902002639 85 54 1.0 4.0 0.00 0.00 0.00 73 1006.7
20260902002539 85 54 1.0 4.0 0.00 0.00 0.00 73 1006.7
20260902002439 85 54 1.0 4.0 0.00 0.00 0.00 73 1006.7
20260902002339 85 54 2.0 4.0 0.00 0.00 0.00 72 1006.6
20260902002241 85 54 3.0 4.0 0.00 0.00 0.00 72 1006.6
20260902002141 85 56 2.0 4.0 0.00 0.00 0.00 72 1006.7
20260902002041 85 51 1.0 4.0 0.00 0.00 0.00 72 1006.7
20260902001941 85 61 0.0 4.0 0.00 0.00 0.00 73 1006.6
20260902001840 85 73 1.0 4.0 0.00 0.00 0.00 72 1006.7
20260902001740 85 71 2.0 4.0 0.00 0.00 0.00 72 1006.6
20260902001641 85 71 2.0 4.0 0.00 0.00 0.00 72 1006.6
20260902001539 85 66 2.0 4.0 0.00 0.00 0.00 72 1006.6
20260902001440 85 62 2.0 5.0 0.00 0.00 0.00 72 1006.5
20260902001340 85 61 1.0 5.0 0.00 0.00 0.00 72 1006.5
20260902001239 85 59 1.0 5.0 0.00 0.00 0.00 72 1006.5
20260902001140 85 47 1.0 5.0 0.00 0.00 0.00 72 1006.5
20260902001039 85 47 2.0 5.0 0.00 0.00 0.00 72 1006.5
20260902000941 85 32 3.0 5.0 0.00 0.00 0.00 72 1006.6
20260902000840 85 100 3.0 5.0 0.00 0.00 0.00 72 1006.6
20260902000738 85 75 2.0 5.0 0.00 0.00 0.00 72 1006.6
20260902000638 85 47 3.0 5.0 0.00 0.00 0.00 72 1006.6
20260902000538 85 48 3.0 5.0 0.00 0.00 0.00 72 1006.7
20260902000440 85 51 3.0 5.0 0.00 0.00 0.00 72 1006.6
20260902000341 85 27 3.0 6.0 0.00 0.00 0.00 72 1006.6
20260902000241 85 21 2.0 6.0 0.00 0.00 0.00 72 1006.6
20260902000139 85 52 2.0 6.0 0.00 0.00 0.00 72 1006.6
20260902000040 85 37 2.0 6.0 0.00 0.00 0.00 72 1006.6
20260901235940 85 32 2.0 7.0 0.00 0.00 0.00 72 1006.7
20260901235840 85 34 2.0 7.0 0.00 0.00 0.00 72 1006.6
20260901235739 85 59 2.0 7.0 0.00 0.00 0.00 72 1006.6
20260901235638 85 59 2.0 7.0 0.00 0.00 0.00 72 1006.6
20260901235540 85 45 3.0 7.0 0.00 0.00 0.00 72 1006.6
20260901235439 85 48 4.0 7.0 0.00 0.00 0.00 72 1006.5
20260901235338 85 32 4.0 7.0 0.00 0.00 0.00 72 1006.6
20260901235239 85 62 4.0 7.0 0.00 0.00 0.00 72 1006.6
20260901235140 85 49 4.0 7.0 0.00 0.00 0.00 72 1006.6
20260901235040 85 55 4.0 11.0 0.00 0.00 0.00 72 1006.6
20260901234940 85 31 4.0 11.0 0.00 0.00 0.00 72 1006.7
20260901234840 85 31 4.0 11.0 0.00 0.00 0.00 72 1006.6
20260901234739 85 65 3.0 11.0 0.00 0.00 0.00 72 1006.6
20260901234639 85 31 3.0 11.0 0.00 0.00 0.00 72 1006.6
20260901234538 85 49 3.0 11.0 0.00 0.00 0.00 72 1006.6
20260901234440 85 354 3.0 11.0 0.00 0.00 0.00 72 1006.5
20260901234339 85 56 3.0 11.0 0.00 0.00 0.00 72 1006.6
20260901234240 85 44 5.0 11.0 0.00 0.00 0.00 72 1006.6
20260901234138 85 100 5.0 11.0 0.00 0.00 0.00 71 1006.7
20260901234040 85 42 5.0 12.0 0.00 0.00 0.00 72 1006.6
20260901233940 85 62 5.0 12.0 0.00 0.00 0.00 72 1006.7
20260901233840 85 42 5.0 12.0 0.00 0.00 0.00 72 1006.7
20260901233740 85 13 4.0 13.0 0.00 0.00 0.00 71 1006.7
20260901233638 85 59 3.0 13.0 0.00 0.00 0.00 71 1006.8
20260901233540 85 55 4.0 13.0 0.00 0.00 0.00 71 1006.7
20260901233439 85 44 6.0 13.0 0.00 0.00 0.00 71 1006.7
20260901233338 85 86 5.0 13.0 0.00 0.00 0.00 71 1006.7
20260901233241 85 66 5.0 13.0 0.00 0.00 0.00 71 1006.7
20260901233139 86 61 7.0 13.0 0.00 0.00 0.00 71 1006.8
20260901233038 86 78 6.0 13.0 0.00 0.00 0.00 71 1006.7
20260901232939 86 51 7.0 13.0 0.00 0.00 0.00 71 1006.8
20260901232839 86 94 8.0 13.0 0.00 0.00 0.00 71 1006.7
20260901232739 86 63 7.0 13.0 0.00 0.00 0.00 72 1006.7
20260901232638 86 48 6.0 12.0 0.00 0.00 0.00 72 1006.7
20260901232540 86 96 5.0 12.0 0.00 0.00 0.00 72 1006.8
20260901232439 86 27 5.0 12.0 0.00 0.00 0.00 72 1006.7
20260901232338 86 351 6.0 12.0 0.00 0.00 0.00 72 1006.7
20260901232239 86 27 5.0 11.0 0.00 0.00 0.00 72 1006.7
20260901232139 86 49 5.0 11.0 0.00 0.00 0.00 72 1006.7
20260901232043 87 0 6.0 11.0 0.00 0.00 0.00 72 1006.7
20260901231938 87 0 6.0 10.0 0.00 0.00 0.00 72 1006.6
20260901231838 87 23 4.0 12.0 0.00 0.00 0.00 72 1006.7
20260901231739 87 37 6.0 14.0 0.00 0.00 0.00 71 1006.6
20260901231637 87 37 6.0 14.0 0.00 0.00 0.00 71 1006.7
20260901231537 87 37 6.0 14.0 0.00 0.00 0.00 71 1006.7
20260901231437 87 37 6.0 14.0 0.00 0.00 0.00 71 1006.7
20260901231337 87 37 6.0 14.0 0.00 0.00 0.00 71 1006.7
20260901231237 87 37 6.0 14.0 0.00 0.00 0.00 71 1006.7
20260901231136 87 37 6.0 14.0 0.00 0.00 0.00 71 1006.7
20260901231037 88 49 7.0 14.0 0.00 0.00 0.00 71 1006.7
20260901230936 88 110 8.0 16.0 0.00 0.00 0.00 71 1006.7
20260901230835 88 42 6.0 16.0 0.00 0.00 0.00 70 1006.6
20260901230737 88 71 5.0 16.0 0.00 0.00 0.00 70 1006.7
20260901230635 88 47 6.0 16.0 0.00 0.00 0.00 70 1006.6
20260901230536 89 42 8.0 16.0 0.00 0.00 0.00 69 1006.7
20260901230435 89 87 8.0 16.0 0.00 0.00 0.00 69 1006.6
20260901230337 89 35 7.0 16.0 0.00 0.00 0.00 68 1006.7
20260901230236 89 42 6.0 16.0 0.00 0.00 0.00 68 1006.7
20260901230136 90 42 8.0 16.0 0.00 0.00 0.00 67 1006.8
20260901230035 90 49 7.0 16.0 0.00 0.00 0.00 67 1006.8
20260901225935 90 345 7.0 15.0 0.00 0.00 0.00 66 1006.9
20260901225836 91 82 10.0 15.0 0.00 0.00 0.00 65 1006.8
20260901225738 91 21 9.0 15.0 0.00 0.00 0.00 64 1006.7
20260901225635 91 8 6.0 12.0 0.00 0.00 0.00 64 1006.8
20260901225535 91 51 5.0 7.0 0.00 0.00 0.00 64 1006.7
20260901225436 91 23 5.0 7.0 0.00 0.00 0.00 64 1006.7
20260901225336 91 20 4.0 7.0 0.00 0.00 0.00 64 1006.7
20260901225235 91 0 2.0 5.0 0.00 0.00 0.00 65 1006.7
20260901225137 91 62 1.0 5.0 0.00 0.00 0.00 65 1006.7
20260901225036 91 62 1.0 5.0 0.00 0.00 0.00 64 1006.7
20260901224937 91 62 1.0 5.0 0.00 0.00 0.00 64 1006.7
20260901224835 91 62 1.0 5.0 0.00 0.00 0.00 64 1006.7
20260901224737 91 62 2.0 5.0 0.00 0.00 0.00 64 1006.7
20260901224638 91 44 2.0 5.0 0.00 0.00 0.00 64 1006.7
20260901224535 91 42 3.0 5.0 0.00 0.00 0.00 65 1006.7
20260901224437 91 69 2.0 3.0 0.00 0.00 0.00 64 1006.6
20260901224335 91 71 1.0 3.0 0.00 0.00 0.00 64 1006.7
20260901224234 91 75 1.0 2.0 0.00 0.00 0.00 64 1006.6
20260901224136 91 75 1.0 2.0 0.00 0.00 0.00 64 1006.8
20260901224036 91 75 1.0 2.0 0.00 0.00 0.00 64 1006.7
20260901223935 90 75 1.0 3.0 0.00 0.00 0.00 64 1006.7
20260901223837 91 75 1.0 3.0 0.00 0.00 0.00 64 1006.7
20260901223735 91 75 1.0 3.0 0.00 0.00 0.00 65 1006.7
20260901223634 91 75 0.0 3.0 0.00 0.00 0.00 65 1006.7
20260901223535 90 75 0.0 3.0 0.00 0.00 0.00 65 1006.7
20260901223436 90 75 1.0 4.0 0.00 0.00 0.00 65 1006.7
20260901223334 90 75 0.0 4.0 0.00 0.00 0.00 65 1006.7
20260901223234 90 75 1.0 4.0 0.00 0.00 0.00 65 1006.7
20260901223134 90 75 2.0 4.0 0.00 0.00 0.00 65 1006.8
20260901223034 90 75 1.0 4.0 0.00 0.00 0.00 65 1006.8
20260901222937 90 75 1.0 4.0 0.00 0.00 0.00 65 1006.8
20260901222835 90 75 2.0 4.0 0.00 0.00 0.00 64 1006.8
20260901222734 90 75 2.0 4.0 0.00 0.00 0.00 64 1006.8
20260901222635 90 75 2.0 4.0 0.00 0.00 0.00 64 1006.7
20260901222536 90 75 2.0 4.0 0.00 0.00 0.00 64 1006.8
20260901222434 91 93 1.0 4.0 0.00 0.00 0.00 64 1006.8
20260901222332 91 93 1.0 5.0 0.00 0.00 0.00 64 1006.8
20260901222232 91 93 1.0 5.0 0.00 0.00 0.00 64 1006.8
20260901222131 91 94 0.0 5.0 0.00 0.00 0.00 64 1006.8
20260901222031 90 94 0.0 5.0 0.00 0.00 0.00 64 1006.7
20260901221932 90 94 1.0 5.0 0.00 0.00 0.00 64 1006.7
20260901221831 90 94 1.0 5.0 0.00 0.00 0.00 64 1006.7
20260901221731 90 96 1.0 5.0 0.00 0.00 0.00 65 1006.7
20260901221631 90 97 1.0 5.0 0.00 0.00 0.00 64 1006.8
20260901221532 90 97 2.0 5.0 0.00 0.00 0.00 65 1006.7
20260901221431 90 97 4.0 5.0 0.00 0.00 0.00 64 1006.8
20260901221331 90 96 3.0 5.0 0.00 0.00 0.00 64 1006.7
20260901221231 90 96 2.0 5.0 0.00 0.00 0.00 64 1006.7
20260901221132 90 103 1.0 3.0 0.00 0.00 0.00 64 1006.8
20260901221031 90 103 1.0 3.0 0.00 0.00 0.00 64 1006.7
20260901220932 90 103 2.0 3.0 0.00 0.00 0.00 64 1006.7
20260901220829 90 103 2.0 3.0 0.00 0.00 0.00 64 1006.7
20260901220727 90 103 2.0 3.0 0.00 0.00 0.00 64 1006.8
20260901220625 90 104 2.0 4.0 0.00 0.00 0.00 64 1006.8
20260901220522 90 106 1.0 4.0 0.00 0.00 0.00 64 1006.8
20260901220419 90 85 0.0 4.0 0.00 0.00 0.00 64 1006.9
20260901220318 90 85 0.0 5.0 0.00 0.00 0.00 64 1006.8
20260901220214 90 85 0.0 5.0 0.00 0.00 0.00 64 1006.8
20260901220112 90 85 0.0 5.0 0.00 0.00 0.00 64 1006.9
20260901220010 90 85 0.0 5.0 0.00 0.00 0.00 64 1007.0
20260901215910 90 85 1.0 5.0 0.00 0.00 0.00 64 1006.9
20260901215808 90 85 3.0 5.0 0.00 0.00 0.00 63 1007.0
20260901215702 90 85 3.0 5.0 0.00 0.00 0.00 63 1007.0
20260901215603 90 85 3.0 5.0 0.00 0.00 0.00 64 1007.0
20260901215504 90 93 3.0 5.0 0.00 0.00 0.00 64 1007.1
20260901215402 90 89 3.0 5.0 0.00 0.00 0.00 63 1006.9
20260901215305 90 69 3.0 4.0 0.00 0.00 0.00 64 1007.0
20260901215202 90 62 2.0 4.0 0.00 0.00 0.00 64 1007.0
20260901215104 90 11 0.0 4.0 0.00 0.00 0.00 64 1007.0
20260901215004 90 10 0.0 4.0 0.00 0.00 0.00 64 1007.1
20260901214904 90 10 0.0 4.0 0.00 0.00 0.00 64 1007.0
20260901214803 90 10 1.0 4.0 0.00 0.00 0.00 64 1007.1
20260901214703 90 10 2.0 4.0 0.00 0.00 0.00 64 1007.1
20260901214604 90 10 3.0 4.0 0.00 0.00 0.00 64 1007.2
20260901214503 90 11 2.0 4.0 0.00 0.00 0.00 64 1007.2
20260901214403 90 7 1.0 5.0 0.00 0.00 0.00 64 1007.2
20260901214303 90 37 1.0 7.0 0.00 0.00 0.00 64 1007.2
20260901214203 90 37 2.0 7.0 0.00 0.00 0.00 63 1007.2
20260901214102 90 37 2.0 7.0 0.00 0.00 0.00 63 1007.3
20260901214004 90 38 2.0 7.0 0.00 0.00 0.00 63 1007.2
20260901213902 90 37 2.0 7.0 0.00 0.00 0.00 63 1007.3
20260901213804 90 41 2.0 7.0 0.00 0.00 0.00 63 1007.3
20260901213703 90 41 2.0 7.0 0.00 0.00 0.00 63 1007.2
20260901213604 90 41 3.0 7.0 0.00 0.00 0.00 63 1007.3
20260901213503 90 41 4.0 7.0 0.00 0.00 0.00 62 1007.3
20260901213403 90 14 4.0 7.0 0.00 0.00 0.00 62 1007.3
20260901213305 90 16 4.0 6.0 0.00 0.00 0.00 62 1007.3
20260901213203 90 38 2.0 6.0 0.00 0.00 0.00 62 1007.2
20260901213103 90 21 1.0 6.0 0.00 0.00 0.00 62 1007.3
20260901213003 90 24 1.0 6.0 0.00 0.00 0.00 62 1007.2
20260901212903 90 24 2.0 7.0 0.00 0.00 0.00 62 1007.3
20260901212803 90 24 3.0 7.0 0.00 0.00 0.00 62 1007.2
20260901212704 90 25 3.0 7.0 0.00 0.00 0.00 63 1007.2
20260901212602 90 21 2.0 7.0 0.00 0.00 0.00 63 1007.3
20260901212503 90 16 2.0 7.0 0.00 0.00 0.00 63 1007.2